| time (UTC) | temp F | wind direction | speed knots | gust knots | rain 1hr in | rain 24hr in | rain mn in | humidity % | barometer mb |
| 20260508034147 | 50 | 180 | 0.0 | 0.9 | 0.03 | 0.20 | 0.32 | 100 | 1015.4 |
| 20260508034048 | 50 | 170 | 0.0 | 0.9 | 0.03 | 0.20 | 0.32 | 100 | 1015.1 |
| 20260508034032 | 50 | 179 | 0.0 | 0.9 | 0.03 | 0.20 | 0.32 | 100 | 1015.1 |
| 20260508033947 | 50 | 177 | 0.0 | 0.9 | 0.02 | 0.19 | 0.31 | 100 | 1015.2 |
| 20260508033848 | 50 | 172 | 0.0 | 0.9 | 0.02 | 0.19 | 0.31 | 100 | 1015.2 |
| 20260508033748 | 50 | 177 | 0.0 | 0.9 | 0.02 | 0.19 | 0.31 | 100 | 1015.0 |
| 20260508033648 | 50 | 198 | 0.0 | 0.0 | 0.02 | 0.19 | 0.31 | 100 | 1015.1 |
| 20260508033532 | 50 | 183 | 0.0 | 0.0 | 0.03 | 0.19 | 0.31 | 100 | 1015.1 |
| 20260508033449 | 50 | 190 | 0.0 | 0.0 | 0.03 | 0.19 | 0.31 | 100 | 1015.2 |
| 20260508033349 | 50 | 186 | 0.0 | 0.0 | 0.03 | 0.19 | 0.31 | 100 | 1015.1 |
| 20260508033248 | 50 | 189 | 0.0 | 0.0 | 0.03 | 0.19 | 0.31 | 100 | 1015.1 |
| 20260508033152 | 50 | 187 | 0.0 | 0.0 | 0.03 | 0.19 | 0.31 | 100 | 1015.1 |
| 20260508033135 | 50 | 185 | 0.0 | 0.0 | 0.03 | 0.19 | 0.31 | 100 | 1015.1 |
| 20260508033120 | 50 | 183 | 0.0 | 0.0 | 0.03 | 0.19 | 0.31 | 100 | 1015.1 |
| 20260508033110 | 50 | 186 | 0.0 | 0.0 | 0.03 | 0.19 | 0.31 | 100 | 1015.1 |
| 20260508032748 | 50 | 188 | 0.0 | 0.0 | 0.03 | 0.19 | 0.31 | 100 | 1015.1 |
| 20260508032647 | 50 | 188 | 0.0 | 0.0 | 0.03 | 0.19 | 0.31 | 100 | 1015.1 |
| 20260508032548 | 50 | 191 | 0.0 | 0.0 | 0.03 | 0.19 | 0.31 | 100 | 1015.0 |
| 20260508032532 | 50 | 191 | 0.0 | 0.9 | 0.03 | 0.19 | 0.31 | 100 | 1015.0 |
| 20260508032447 | 50 | 195 | 0.0 | 0.9 | 0.03 | 0.19 | 0.31 | 100 | 1015.2 |
| 20260508032349 | 50 | 192 | 0.0 | 0.9 | 0.04 | 0.19 | 0.31 | 100 | 1015.1 |
| 20260508032326 | 50 | 200 | 0.0 | 0.9 | 0.04 | 0.19 | 0.31 | 100 | 1015.1 |
| 20260508032310 | 50 | 176 | 0.0 | 0.9 | 0.04 | 0.19 | 0.31 | 100 | 1015.0 |
| 20260508032254 | 50 | 189 | 0.0 | 0.9 | 0.04 | 0.19 | 0.31 | 100 | 1015.1 |
| 20260508032241 | 50 | 191 | 0.0 | 0.9 | 0.04 | 0.19 | 0.31 | 100 | 1015.1 |
| 20260508032230 | 50 | 187 | 0.0 | 0.9 | 0.04 | 0.19 | 0.31 | 100 | 1015.2 |
| 20260508031648 | 50 | 174 | 0.0 | 0.9 | 0.04 | 0.18 | 0.30 | 100 | 1015.0 |
| 20260508031533 | 50 | 196 | 0.0 | 0.0 | 0.04 | 0.18 | 0.30 | 100 | 1015.1 |
| 20260508031449 | 50 | 170 | 0.0 | 0.0 | 0.04 | 0.18 | 0.30 | 100 | 1014.9 |
| 20260508031348 | 50 | 195 | 0.0 | 0.0 | 0.04 | 0.18 | 0.30 | 100 | 1015.1 |
| 20260508031248 | 50 | 153 | 0.0 | 0.0 | 0.05 | 0.18 | 0.30 | 100 | 1015.0 |
| 20260508031148 | 50 | 171 | 0.0 | 0.0 | 0.05 | 0.18 | 0.30 | 100 | 1014.8 |
| 20260508031117 | 50 | 179 | 0.0 | 0.9 | 0.06 | 0.18 | 0.30 | 100 | 1014.8 |
| 20260508031111 | 50 | 189 | 0.0 | 0.9 | 0.07 | 0.17 | 0.29 | 100 | 1014.6 |
| 20260508031107 | 50 | 177 | 0.0 | 0.9 | 0.08 | 0.17 | 0.29 | 100 | 1014.9 |
| 20260508031100 | 50 | 180 | 0.0 | 0.0 | 0.05 | 0.18 | 0.30 | 100 | 1014.8 |
| 20260508031046 | 50 | 186 | 0.0 | 0.0 | 0.05 | 0.18 | 0.30 | 100 | 1014.8 |
| 20260508031023 | 50 | 188 | 0.0 | 0.0 | 0.05 | 0.18 | 0.30 | 100 | 1014.8 |
| 20260508031006 | 50 | 191 | 0.0 | 0.0 | 0.05 | 0.18 | 0.30 | 100 | 1015.0 |
| 20260508030950 | 50 | 185 | 0.0 | 0.0 | 0.05 | 0.18 | 0.30 | 100 | 1015.0 |
| 20260508030935 | 50 | 187 | 0.0 | 0.0 | 0.05 | 0.18 | 0.30 | 100 | 1014.7 |
| 20260508030919 | 50 | 191 | 0.0 | 0.0 | 0.06 | 0.18 | 0.30 | 100 | 1014.8 |
| 20260508030908 | 50 | 186 | 0.0 | 0.0 | 0.06 | 0.18 | 0.30 | 100 | 1014.8 |
| 20260508030856 | 50 | 188 | 0.0 | 0.0 | 0.06 | 0.18 | 0.30 | 100 | 1014.8 |
| 20260508030839 | 50 | 186 | 0.0 | 0.9 | 0.06 | 0.18 | 0.30 | 100 | 1015.0 |
| 20260508030603 | 50 | 191 | 0.0 | 0.9 | 0.06 | 0.18 | 0.30 | 100 | 1014.9 |
| 20260508030546 | 50 | 169 | 0.0 | 0.9 | 0.06 | 0.18 | 0.30 | 100 | 1014.8 |
| 20260508030318 | 50 | 180 | 0.0 | 0.9 | 0.07 | 0.18 | 0.30 | 100 | 1014.8 |
| 20260508030302 | 50 | 186 | 0.0 | 0.9 | 0.07 | 0.18 | 0.30 | 100 | 1014.8 |
| 20260508030027 | 50 | 178 | 0.0 | 0.9 | 0.07 | 0.17 | 0.29 | 100 | 1014.7 |
| 20260508030010 | 50 | 189 | 0.0 | 0.9 | 0.07 | 0.17 | 0.29 | 100 | 1014.6 |
| 20260508025727 | 50 | 182 | 0.0 | 0.9 | 0.07 | 0.17 | 0.29 | 100 | 1014.8 |
| 20260508025711 | 50 | 198 | 0.0 | 0.0 | 0.08 | 0.17 | 0.29 | 100 | 1014.8 |
| 20260508025656 | 50 | 173 | 0.0 | 0.0 | 0.08 | 0.17 | 0.29 | 100 | 1014.7 |
| 20260508025421 | 50 | 171 | 0.0 | 0.9 | 0.08 | 0.17 | 0.29 | 100 | 1014.9 |
| 20260508024847 | 50 | 191 | 0.0 | 0.9 | 0.09 | 0.17 | 0.29 | 100 | 1014.5 |
| 20260508024748 | 50 | 186 | 0.0 | 0.9 | 0.09 | 0.17 | 0.29 | 100 | 1014.6 |
| 20260508024649 | 50 | 182 | 0.0 | 0.9 | 0.09 | 0.17 | 0.29 | 100 | 1014.7 |
| 20260508024548 | 50 | 188 | 0.0 | 0.9 | 0.09 | 0.17 | 0.29 | 100 | 1014.7 |
| 20260508024532 | 50 | 187 | 0.0 | 0.9 | 0.09 | 0.17 | 0.29 | 100 | 1014.7 |
| 20260508024448 | 50 | 188 | 0.0 | 0.9 | 0.09 | 0.17 | 0.29 | 100 | 1014.3 |
| 20260508024348 | 50 | 188 | 0.0 | 0.9 | 0.10 | 0.17 | 0.29 | 100 | 1014.7 |
| 20260508024332 | 50 | 187 | 0.0 | 0.9 | 0.11 | 0.17 | 0.29 | 100 | 1014.7 |
| 20260508024323 | 50 | 184 | 0.0 | 0.9 | 0.10 | 0.17 | 0.29 | 100 | 1014.5 |
| 20260508024307 | 50 | 195 | 0.0 | 0.9 | 0.10 | 0.17 | 0.29 | 100 | 1014.3 |
| 20260508024251 | 50 | 189 | 0.0 | 0.9 | 0.11 | 0.17 | 0.29 | 100 | 1014.7 |
| 20260508023943 | 50 | 190 | 0.0 | 0.9 | 0.12 | 0.17 | 0.29 | 100 | 1014.5 |
| 20260508023838 | 50 | 187 | 0.0 | 0.9 | 0.12 | 0.17 | 0.29 | 100 | 1014.5 |
| 20260508023737 | 50 | 188 | 0.0 | 0.9 | 0.12 | 0.17 | 0.29 | 100 | 1014.6 |
| 20260508023712 | 50 | 199 | 0.0 | 0.9 | 0.12 | 0.17 | 0.29 | 100 | 1014.3 |
| 20260508023649 | 50 | 195 | 0.0 | 0.0 | 0.12 | 0.16 | 0.29 | 100 | 1014.6 |
| 20260508023633 | 50 | 177 | 0.0 | 0.0 | 0.12 | 0.16 | 0.28 | 100 | 1014.5 |
| 20260508023617 | 50 | 188 | 0.0 | 0.0 | 0.12 | 0.16 | 0.28 | 100 | 1014.7 |
| 20260508023037 | 50 | 188 | 0.0 | 0.0 | 0.13 | 0.16 | 0.28 | 100 | 1014.2 |
| 20260508022937 | 50 | 188 | 0.0 | 0.0 | 0.13 | 0.16 | 0.28 | 100 | 1014.2 |
| 20260508022923 | 50 | 186 | 0.0 | 0.0 | 0.13 | 0.16 | 0.28 | 100 | 1014.5 |
| 20260508022919 | 50 | 186 | 0.0 | 0.9 | 0.13 | 0.15 | 0.27 | 100 | 1014.3 |
| 20260508022909 | 50 | 188 | 0.0 | 0.0 | 0.13 | 0.16 | 0.28 | 100 | 1014.2 |
| 20260508022853 | 50 | 187 | 0.0 | 0.0 | 0.13 | 0.16 | 0.28 | 100 | 1014.3 |
| 20260508022838 | 50 | 186 | 0.0 | 0.0 | 0.13 | 0.16 | 0.28 | 100 | 1014.2 |
| 20260508022821 | 50 | 186 | 0.0 | 0.0 | 0.13 | 0.16 | 0.28 | 100 | 1014.5 |
| 20260508022555 | 50 | 184 | 0.0 | 0.9 | 0.13 | 0.16 | 0.28 | 100 | 1014.5 |
| 20260508022538 | 50 | 185 | 0.0 | 0.9 | 0.12 | 0.15 | 0.27 | 100 | 1014.3 |
| 20260508022524 | 50 | 186 | 0.0 | 0.9 | 0.12 | 0.15 | 0.27 | 100 | 1014.5 |
| 20260508022508 | 50 | 185 | 0.0 | 0.9 | 0.12 | 0.15 | 0.27 | 100 | 1014.5 |
| 20260508022001 | 50 | 188 | 0.0 | 0.0 | 0.12 | 0.13 | 0.25 | 100 | 1014.2 |
| 20260508021957 | 50 | 176 | 0.0 | 2.6 | 0.10 | 0.10 | 0.22 | 100 | 1014.2 |
| 20260508021949 | 50 | 186 | 0.0 | 0.9 | 0.13 | 0.15 | 0.27 | 100 | 1014.2 |
| 20260508021933 | 50 | 169 | 0.0 | 0.9 | 0.13 | 0.15 | 0.27 | 100 | 1014.5 |
| 20260508021918 | 50 | 181 | 0.0 | 0.9 | 0.12 | 0.14 | 0.26 | 100 | 1014.5 |
| 20260508021901 | 50 | 173 | 0.0 | 0.9 | 0.12 | 0.14 | 0.26 | 100 | 1014.5 |
| 20260508021839 | 50 | 125 | 0.0 | 0.9 | 0.12 | 0.14 | 0.26 | 100 | 1014.3 |
| 20260508021823 | 50 | 185 | 0.0 | 0.0 | 0.12 | 0.14 | 0.26 | 100 | 1014.2 |
| 20260508021808 | 50 | 176 | 0.0 | 0.0 | 0.13 | 0.14 | 0.26 | 100 | 1014.2 |
| 20260508021752 | 50 | 187 | 0.0 | 0.0 | 0.12 | 0.13 | 0.25 | 100 | 1014.5 |
| 20260508021737 | 50 | 187 | 0.0 | 0.0 | 0.12 | 0.13 | 0.25 | 100 | 1014.2 |
| 20260508021247 | 50 | 188 | 0.0 | 0.0 | 0.12 | 0.13 | 0.25 | 100 | 1014.3 |
| 20260508021231 | 50 | 188 | 0.0 | 0.0 | 0.12 | 0.13 | 0.25 | 100 | 1014.3 |
| 20260508021215 | 50 | 188 | 0.0 | 0.0 | 0.12 | 0.13 | 0.25 | 100 | 1014.7 |
| 20260508020727 | 50 | 192 | 0.0 | 1.7 | 0.12 | 0.12 | 0.25 | 100 | 1014.3 |
| 20260508020711 | 50 | 190 | 0.0 | 1.7 | 0.12 | 0.12 | 0.24 | 100 | 1014.6 |
| 20260508020433 | 50 | 190 | 0.0 | 1.7 | 0.12 | 0.12 | 0.24 | 100 | 1014.7 |
| 20260508020418 | 50 | 188 | 0.0 | 1.7 | 0.12 | 0.12 | 0.24 | 100 | 1014.3 |
| 20260508020353 | 50 | 187 | 0.0 | 2.6 | 0.12 | 0.12 | 0.24 | 100 | 1014.3 |
| 20260508020337 | 50 | 186 | 0.0 | 2.6 | 0.11 | 0.11 | 0.24 | 100 | 1014.5 |
| 20260508020044 | 50 | 142 | 0.0 | 2.6 | 0.10 | 0.10 | 0.22 | 100 | 1014.2 |
| 20260508020027 | 50 | 176 | 0.0 | 2.6 | 0.10 | 0.10 | 0.22 | 100 | 1014.2 |
| 20260508015315 | 50 | 171 | 0.0 | 2.6 | 0.09 | 0.09 | 0.21 | 100 | 1014.5 |
| 20260508015259 | 50 | 135 | 0.0 | 2.6 | 0.09 | 0.09 | 0.21 | 100 | 1014.3 |
| 20260508015236 | 50 | 177 | 0.0 | 0.0 | 0.09 | 0.09 | 0.21 | 100 | 1014.6 |
| 20260508015206 | 50 | 180 | 0.0 | 0.0 | 0.08 | 0.08 | 0.21 | 100 | 1014.6 |
| 20260508014929 | 50 | 115 | 0.0 | 0.0 | 0.08 | 0.08 | 0.20 | 100 | 1014.6 |
| 20260508014913 | 51 | 168 | 0.0 | 0.0 | 0.08 | 0.08 | 0.20 | 100 | 1014.6 |
| 20260508014646 | 51 | 170 | 0.0 | 0.0 | 0.08 | 0.08 | 0.20 | 100 | 1014.6 |
| 20260508014629 | 50 | 191 | 0.0 | 0.0 | 0.08 | 0.08 | 0.20 | 100 | 1014.5 |
| 20260508014614 | 50 | 192 | 0.0 | 0.0 | 0.07 | 0.07 | 0.20 | 100 | 1014.5 |
| 20260508014558 | 50 | 191 | 0.0 | 0.0 | 0.07 | 0.07 | 0.19 | 100 | 1014.7 |
| 20260508014313 | 50 | 188 | 0.0 | 0.0 | 0.06 | 0.06 | 0.18 | 100 | 1014.5 |
| 20260508014257 | 50 | 186 | 0.0 | 0.0 | 0.05 | 0.05 | 0.18 | 100 | 1014.2 |
| 20260508013802 | 51 | 174 | 0.0 | 0.0 | 0.05 | 0.05 | 0.17 | 100 | 1014.6 |
| 20260508013536 | 51 | 182 | 0.0 | 0.0 | 0.04 | 0.04 | 0.16 | 100 | 1014.6 |
| 20260508013436 | 51 | 186 | 0.0 | 0.0 | 0.04 | 0.04 | 0.16 | 100 | 1014.6 |
| 20260508013338 | 51 | 185 | 0.0 | 0.0 | 0.04 | 0.04 | 0.16 | 100 | 1014.7 |
| 20260508013238 | 51 | 192 | 0.0 | 0.0 | 0.04 | 0.04 | 0.16 | 100 | 1014.7 |
| 20260508013136 | 51 | 192 | 0.0 | 0.0 | 0.04 | 0.04 | 0.16 | 100 | 1014.8 |
| 20260508013036 | 51 | 191 | 0.0 | 0.0 | 0.03 | 0.03 | 0.15 | 100 | 1014.7 |
| 20260508012936 | 51 | 190 | 0.0 | 0.0 | 0.03 | 0.03 | 0.15 | 100 | 1014.6 |
| 20260508012911 | 51 | 191 | 0.0 | 0.0 | 0.03 | 0.03 | 0.15 | 100 | 1014.8 |
| 20260508012856 | 51 | 190 | 0.0 | 0.0 | 0.03 | 0.03 | 0.15 | 100 | 1015.0 |
| 20260508012536 | 50 | 189 | 0.0 | 0.0 | 0.03 | 0.03 | 0.15 | 100 | 1014.8 |
| 20260508012437 | 50 | 188 | 0.0 | 0.0 | 0.03 | 0.03 | 0.15 | 100 | 1014.9 |
| 20260508012335 | 50 | 186 | 0.0 | 0.0 | 0.03 | 0.03 | 0.15 | 100 | 1014.7 |
| 20260508012236 | 50 | 188 | 0.0 | 0.0 | 0.03 | 0.03 | 0.15 | 100 | 1014.8 |
| 20260508012137 | 51 | 188 | 0.0 | 0.0 | 0.03 | 0.03 | 0.15 | 100 | 1014.7 |
| 20260508012036 | 51 | 187 | 0.0 | 0.0 | 0.02 | 0.02 | 0.15 | 100 | 1014.8 |
| 20260508011937 | 51 | 185 | 0.0 | 0.0 | 0.02 | 0.02 | 0.14 | 100 | 1014.9 |
| 20260508011836 | 51 | 192 | 0.0 | 0.0 | 0.02 | 0.02 | 0.14 | 100 | 1014.8 |
| 20260508011736 | 51 | 192 | 0.0 | 0.0 | 0.02 | 0.02 | 0.14 | 100 | 1014.7 |
| 20260508011637 | 51 | 192 | 0.0 | 0.0 | 0.02 | 0.02 | 0.14 | 100 | 1014.7 |
| 20260508011538 | 51 | 192 | 0.0 | 0.0 | 0.02 | 0.02 | 0.14 | 100 | 1014.8 |
| 20260508011512 | 51 | 192 | 0.0 | 0.0 | 0.02 | 0.02 | 0.14 | 100 | 1014.6 |
| 20260508011457 | 51 | 192 | 0.0 | 0.0 | 0.01 | 0.01 | 0.14 | 100 | 1015.0 |
| 20260508011135 | 51 | 190 | 0.0 | 0.0 | 0.01 | 0.01 | 0.13 | 100 | 1014.8 |
| 20260508011036 | 51 | 187 | 0.0 | 0.0 | 0.01 | 0.01 | 0.13 | 100 | 1014.8 |
| 20260508010938 | 51 | 190 | 0.0 | 0.0 | 0.01 | 0.01 | 0.13 | 100 | 1014.9 |
| 20260508010836 | 51 | 191 | 0.0 | 0.0 | 0.01 | 0.01 | 0.13 | 100 | 1014.9 |
| 20260508010736 | 51 | 172 | 0.0 | 0.0 | 0.01 | 0.01 | 0.13 | 100 | 1014.9 |
| 20260508010636 | 51 | 191 | 0.0 | 0.0 | 0.01 | 0.01 | 0.13 | 100 | 1014.6 |
| 20260508010536 | 51 | 193 | 0.0 | 0.0 | 0.00 | 0.00 | 0.13 | 100 | 1014.7 |
| 20260508010514 | 51 | 180 | 0.0 | 0.0 | 0.00 | 0.00 | 0.12 | 100 | 1014.6 |
| 20260508010506 | 51 | 191 | 0.0 | 0.0 | 0.00 | 0.00 | 0.12 | 100 | 1014.7 |
| 20260508010451 | 51 | 188 | 0.0 | 0.0 | 0.00 | 0.00 | 0.12 | 100 | 1014.7 |
| 20260508010424 | 51 | 191 | 0.0 | 0.0 | 0.00 | 0.00 | 0.12 | 100 | 1014.7 |
| 20260508010406 | 51 | 180 | 0.0 | 0.0 | 0.00 | 0.00 | 0.12 | 100 | 1014.6 |
| 20260508005836 | 51 | 188 | 0.0 | 0.0 | 0.00 | 0.00 | 0.12 | 100 | 1014.6 |
| 20260508005736 | 51 | 192 | 0.0 | 0.0 | 0.00 | 0.00 | 0.12 | 100 | 1014.6 |
| 20260508005637 | 51 | 196 | 0.0 | 0.0 | 0.00 | 0.00 | 0.12 | 100 | 1014.7 |
| 20260508005536 | 51 | 191 | 0.0 | 0.0 | 0.00 | 0.00 | 0.12 | 100 | 1014.8 |
| 20260508005435 | 51 | 191 | 0.0 | 0.0 | 0.00 | 0.00 | 0.12 | 100 | 1014.7 |
| 20260508005336 | 51 | 191 | 0.0 | 0.0 | 0.00 | 0.00 | 0.12 | 100 | 1014.7 |
| 20260508005238 | 51 | 192 | 0.0 | 0.0 | 0.00 | 0.00 | 0.12 | 100 | 1014.3 |
| 20260508005136 | 51 | 192 | 0.0 | 0.0 | 0.00 | 0.00 | 0.12 | 100 | 1014.6 |
| 20260508005034 | 51 | 198 | 0.0 | 0.0 | 0.00 | 0.00 | 0.12 | 100 | 1014.5 |
| 20260508004719 | 51 | 192 | 0.0 | 0.0 | 0.07 | 0.36 | 0.12 | 100 | 1014.5 |
| 20260508004606 | 51 | 188 | 0.0 | 0.0 | 0.08 | 0.36 | 0.12 | 100 | 1014.2 |
| 20260508004544 | 51 | 169 | 0.0 | 0.0 | 0.08 | 0.36 | 0.12 | 100 | 1014.3 |
| 20260508004528 | 51 | 145 | 0.0 | 0.0 | 0.07 | 0.35 | 0.11 | 100 | 1014.5 |
| 20260508004513 | 51 | 196 | 0.0 | 0.0 | 0.07 | 0.35 | 0.11 | 100 | 1014.3 |
| 20260508004229 | 51 | 193 | 0.0 | 0.0 | 0.08 | 0.35 | 0.11 | 100 | 1014.1 |
| 20260508003907 | 51 | 191 | 0.0 | 0.0 | 0.09 | 0.35 | 0.11 | 100 | 1014.2 |
| 20260508003806 | 51 | 191 | 0.0 | 0.0 | 0.10 | 0.35 | 0.11 | 100 | 1014.2 |
| 20260508003706 | 51 | 187 | 0.0 | 0.0 | 0.10 | 0.35 | 0.11 | 100 | 1014.1 |
| 20260508003605 | 51 | 187 | 0.0 | 0.0 | 0.11 | 0.35 | 0.11 | 100 | 1014.0 |
| 20260508003506 | 51 | 185 | 0.0 | 0.0 | 0.11 | 0.35 | 0.11 | 100 | 1014.6 |
| 20260508003405 | 51 | 131 | 0.0 | 0.0 | 0.11 | 0.35 | 0.11 | 100 | 1014.1 |
| 20260508003306 | 51 | 190 | 0.0 | 0.0 | 0.11 | 0.35 | 0.11 | 100 | 1014.2 |
| 20260508003207 | 51 | 188 | 0.0 | 0.0 | 0.11 | 0.35 | 0.11 | 100 | 1014.3 |
| 20260508003106 | 51 | 194 | 0.0 | 0.0 | 0.11 | 0.35 | 0.11 | 100 | 1014.3 |
| 20260508003007 | 51 | 196 | 0.0 | 0.9 | 0.11 | 0.35 | 0.11 | 100 | 1014.3 |
| 20260508002934 | 51 | 194 | 0.0 | 0.9 | 0.11 | 0.35 | 0.11 | 100 | 1014.3 |
| 20260508002927 | 51 | 196 | 0.0 | 0.9 | 0.11 | 0.35 | 0.11 | 100 | 1014.2 |
| 20260508002912 | 51 | 197 | 0.0 | 0.9 | 0.11 | 0.35 | 0.11 | 100 | 1014.3 |
| 20260508002856 | 51 | 186 | 0.0 | 0.9 | 0.11 | 0.35 | 0.11 | 100 | 1014.3 |
| 20260508002839 | 51 | 194 | 0.0 | 0.9 | 0.11 | 0.35 | 0.11 | 100 | 1014.3 |
| 20260508002613 | 51 | 195 | 0.0 | 0.9 | 0.11 | 0.35 | 0.11 | 100 | 1014.1 |
| 20260508002557 | 51 | 192 | 0.0 | 0.9 | 0.11 | 0.35 | 0.11 | 100 | 1014.3 |
| 20260508002321 | 51 | 194 | 0.0 | 0.9 | 0.11 | 0.35 | 0.11 | 100 | 1014.2 |
| 20260508002259 | 51 | 176 | 0.0 | 0.9 | 0.11 | 0.35 | 0.11 | 100 | 1014.3 |
| 20260508002240 | 51 | 178 | 0.0 | 0.0 | 0.11 | 0.35 | 0.11 | 100 | 1014.3 |
| 20260508002004 | 51 | 190 | 0.0 | 0.0 | 0.11 | 0.35 | 0.11 | 100 | 1014.2 |
| 20260508001947 | 51 | 188 | 0.0 | 0.0 | 0.10 | 0.34 | 0.10 | 100 | 1014.7 |
| 20260508001924 | 51 | 185 | 0.0 | 0.0 | 0.10 | 0.34 | 0.10 | 100 | 1014.1 |
| 20260508001909 | 51 | 188 | 0.0 | 0.0 | 0.10 | 0.34 | 0.10 | 100 | 1014.2 |
| 20260508001632 | 51 | 199 | 0.0 | 0.0 | 0.10 | 0.34 | 0.10 | 100 | 1014.1 |
| 20260508001144 | 51 | 183 | 0.0 | 0.9 | 0.09 | 0.33 | 0.09 | 100 | 1014.1 |
| 20260508001126 | 51 | 168 | 0.0 | 0.9 | 0.09 | 0.33 | 0.09 | 100 | 1014.2 |
| 20260508000849 | 51 | 194 | 0.0 | 0.9 | 0.09 | 0.33 | 0.09 | 100 | 1014.1 |
| 20260508000832 | 51 | 182 | 0.0 | 0.9 | 0.09 | 0.33 | 0.09 | 100 | 1014.3 |
| 20260508000605 | 51 | 188 | 0.0 | 0.9 | 0.09 | 0.33 | 0.09 | 100 | 1014.0 |
| 20260508000541 | 51 | 132 | 0.0 | 0.9 | 0.09 | 0.33 | 0.09 | 100 | 1014.0 |
| 20260508000526 | 52 | 187 | 0.0 | 0.9 | 0.08 | 0.32 | 0.08 | 100 | 1014.0 |
| 20260508000250 | 52 | 186 | 0.0 | 0.0 | 0.08 | 0.32 | 0.08 | 100 | 1014.2 |
| 20260508000228 | 52 | 187 | 0.0 | 0.0 | 0.07 | 0.31 | 0.08 | 100 | 1014.1 |
| 20260507235941 | 52 | 161 | 0.0 | 0.0 | 0.07 | 0.31 | 0.07 | 100 | 1014.2 |
| 20260507235924 | 52 | 188 | 0.0 | 0.0 | 0.07 | 0.31 | 0.07 | 100 | 1014.3 |
| 20260507235907 | 52 | 139 | 0.0 | 0.0 | 0.07 | 0.31 | 0.07 | 100 | 1014.2 |
| 20260507235844 | 52 | 188 | 0.0 | 0.0 | 0.06 | 0.30 | 0.07 | 100 | 1014.8 |
| 20260507235608 | 52 | 186 | 0.0 | 0.0 | 0.06 | 0.30 | 0.06 | 100 | 1014.3 |
| 20260507235332 | 52 | 190 | 0.0 | 0.0 | 0.06 | 0.30 | 0.06 | 100 | 1014.5 |
| 20260507235106 | 52 | 188 | 0.0 | 0.0 | 0.06 | 0.30 | 0.06 | 100 | 1014.6 |
| 20260507235006 | 52 | 186 | 0.0 | 0.0 | 0.06 | 0.30 | 0.06 | 100 | 1014.5 |
| 20260507234906 | 52 | 193 | 0.0 | 0.0 | 0.06 | 0.30 | 0.06 | 100 | 1014.2 |
| 20260507234848 | 52 | 194 | 0.0 | 0.0 | 0.05 | 0.29 | 0.06 | 100 | 1014.3 |
| 20260507234832 | 52 | 193 | 0.0 | 0.0 | 0.05 | 0.29 | 0.05 | 100 | 1014.5 |
| 20260507234606 | 52 | 179 | 0.0 | 0.0 | 0.04 | 0.28 | 0.04 | 100 | 1014.5 |
| 20260507234507 | 52 | 188 | 0.0 | 0.0 | 0.04 | 0.28 | 0.04 | 100 | 1014.5 |
| 20260507234407 | 52 | 188 | 0.0 | 0.0 | 0.04 | 0.28 | 0.04 | 100 | 1014.5 |
| 20260507234305 | 52 | 187 | 0.0 | 0.0 | 0.04 | 0.28 | 0.04 | 100 | 1014.3 |
| 20260507234206 | 52 | 187 | 0.0 | 0.0 | 0.03 | 0.27 | 0.04 | 100 | 1014.2 |
| 20260507234106 | 52 | 187 | 0.0 | 0.9 | 0.03 | 0.27 | 0.03 | 100 | 1014.3 |
| 20260507234006 | 52 | 186 | 0.0 | 0.9 | 0.03 | 0.27 | 0.03 | 100 | 1014.3 |
| 20260507233908 | 52 | 185 | 0.0 | 0.9 | 0.02 | 0.26 | 0.02 | 100 | 1014.5 |
| 20260507233806 | 52 | 183 | 0.0 | 0.9 | 0.01 | 0.25 | 0.01 | 100 | 1014.1 |
| 20260507233706 | 52 | 186 | 0.0 | 0.9 | 0.01 | 0.25 | 0.01 | 100 | 1014.5 |
| 20260507233606 | 52 | 184 | 0.0 | 0.9 | 0.00 | 0.24 | 0.00 | 100 | 1014.2 |
| 20260507233541 | 52 | 181 | 0.0 | 0.9 | 0.00 | 0.24 | 0.00 | 100 | 1014.3 |
| 20260507233526 | 52 | 131 | 0.0 | 0.9 | 0.00 | 0.24 | 0.00 | 100 | 1014.1 |
| 20260507233510 | 52 | 144 | 0.0 | 0.9 | 0.00 | 0.24 | 0.00 | 100 | 1014.3 |
| 20260507233455 | 52 | 209 | 0.0 | 0.9 | 0.00 | 0.24 | 0.00 | 100 | 1014.3 |
| 20260507233228 | 52 | 169 | 0.0 | 0.0 | 0.00 | 0.24 | 0.00 | 100 | 1014.3 |
| 20260507232906 | 52 | 192 | 0.0 | 0.0 | 0.00 | 0.24 | 0.00 | 100 | 1014.3 |
| 20260507232807 | 52 | 191 | 0.0 | 0.0 | 0.00 | 0.24 | 0.00 | 100 | 1014.5 |
| 20260507232749 | 52 | 187 | 0.0 | 0.0 | 0.00 | 0.24 | 0.00 | 100 | 1014.6 |
| 20260507232727 | 53 | 169 | 0.0 | 0.0 | 0.00 | 0.24 | 0.00 | 100 | 1014.5 |
| 20260507232430 | 52 | 186 | 0.0 | 0.0 | 0.00 | 0.24 | 0.00 | 100 | 1014.6 |
| 20260507232414 | 52 | 187 | 0.0 | 0.0 | 0.00 | 0.24 | 0.00 | 100 | 1014.5 |
| 20260507232359 | 52 | 187 | 0.0 | 0.0 | 0.00 | 0.24 | 0.00 | 100 | 1014.3 |
| 20260507232336 | 53 | 169 | 0.0 | 0.0 | 0.00 | 0.24 | 0.00 | 100 | 1014.5 |
| 20260507232318 | 53 | 177 | 0.0 | 0.0 | 0.00 | 0.24 | 0.00 | 100 | 1014.2 |
| 20260507232042 | 53 | 192 | 0.0 | 0.0 | 0.00 | 0.24 | 0.00 | 100 | 1014.5 |
| 20260507232026 | 53 | 191 | 0.0 | 0.0 | 0.00 | 0.24 | 0.00 | 100 | 1014.3 |
| 20260507231800 | 53 | 191 | 0.0 | 0.0 | 0.00 | 0.24 | 0.00 | 100 | 1014.5 |
| 20260507231745 | 53 | 187 | 0.0 | 0.0 | 0.00 | 0.24 | 0.00 | 100 | 1014.3 |
| 20260507231729 | 53 | 187 | 0.0 | 0.0 | 0.00 | 0.24 | 0.00 | 100 | 1014.3 |
| 20260507231713 | 53 | 187 | 0.0 | 0.0 | 0.00 | 0.24 | 0.00 | 100 | 1014.2 |
| 20260507231227 | 53 | 187 | 0.0 | 0.0 | 0.00 | 0.24 | 0.00 | 100 | 1014.2 |
| 20260507230907 | 53 | 187 | 0.0 | 0.0 | 0.00 | 0.24 | 0.00 | 100 | 1014.5 |
| 20260507230807 | 53 | 187 | 0.0 | 0.0 | 0.00 | 0.24 | 0.00 | 100 | 1014.3 |
| 20260507230707 | 53 | 187 | 0.0 | 0.0 | 0.00 | 0.24 | 0.00 | 100 | 1014.6 |
| 20260507230606 | 53 | 187 | 0.0 | 0.0 | 0.00 | 0.24 | 0.00 | 100 | 1014.3 |
| 20260507230541 | 53 | 174 | 0.0 | 0.9 | 0.00 | 0.24 | 0.00 | 100 | 1014.1 |
| 20260507230533 | 53 | 181 | 0.0 | 0.0 | 0.00 | 0.24 | 0.00 | 100 | 1014.3 |
| 20260507230518 | 53 | 191 | 0.0 | 0.9 | 0.00 | 0.24 | 0.00 | 100 | 1014.3 |
| 20260507230502 | 53 | 191 | 0.0 | 0.9 | 0.00 | 0.24 | 0.00 | 100 | 1014.2 |
| 20260507230446 | 53 | 191 | 0.0 | 0.9 | 0.00 | 0.24 | 0.00 | 100 | 1014.2 |
| 20260507230429 | 53 | 174 | 0.0 | 0.9 | 0.00 | 0.24 | 0.00 | 100 | 1014.1 |
| 20260507230201 | 53 | 172 | 0.0 | 0.9 | 0.00 | 0.24 | 0.00 | 100 | 1014.1 |
| 20260507230145 | 53 | 165 | 0.0 | 0.9 | 0.00 | 0.24 | 0.00 | 100 | 1014.2 |
| 20260507225909 | 53 | 181 | 0.0 | 0.9 | 0.00 | 0.24 | 0.00 | 100 | 1014.3 |
| 20260507225642 | 53 | 186 | 0.0 | 0.9 | 0.00 | 0.24 | 0.00 | 100 | 1014.3 |
| 20260507225626 | 53 | 196 | 0.0 | 0.9 | 0.00 | 0.24 | 0.00 | 100 | 1014.3 |
| 20260507225609 | 53 | 173 | 0.0 | 0.9 | 0.00 | 0.24 | 0.00 | 100 | 1014.3 |
| 20260507225554 | 53 | 181 | 0.0 | 0.9 | 0.00 | 0.24 | 0.00 | 100 | 1014.2 |
| 20260507225532 | 53 | 166 | 0.0 | 0.9 | 0.00 | 0.24 | 0.00 | 100 | 1014.5 |
| 20260507225306 | 53 | 184 | 0.0 | 0.9 | 0.00 | 0.24 | 0.00 | 100 | 1014.6 |
| 20260507225026 | 53 | 180 | 0.0 | 0.9 | 0.00 | 0.24 | 0.00 | 100 | 1014.5 |
| 20260507224748 | 53 | 170 | 0.0 | 0.9 | 0.00 | 0.24 | 0.00 | 100 | 1014.5 |
| 20260507224725 | 53 | 163 | 0.0 | 0.9 | 0.00 | 0.24 | 0.00 | 100 | 1014.2 |
| 20260507224441 | 53 | 184 | 0.0 | 0.0 | 0.00 | 0.24 | 0.00 | 100 | 1014.5 |
| 20260507224425 | 53 | 181 | 0.0 | 0.0 | 0.00 | 0.24 | 0.00 | 100 | 1014.5 |
| 20260507224106 | 53 | 186 | 0.0 | 0.0 | 0.00 | 0.24 | 0.00 | 100 | 1014.3 |
| 20260507224006 | 53 | 190 | 0.0 | 0.0 | 0.00 | 0.24 | 0.00 | 100 | 1014.3 |
| 20260507223907 | 53 | 188 | 0.0 | 0.0 | 0.00 | 0.24 | 0.00 | 100 | 1014.2 |
| 20260507223806 | 53 | 190 | 0.0 | 0.0 | 0.00 | 0.24 | 0.00 | 100 | 1014.2 |
| 20260507223706 | 53 | 182 | 0.0 | 0.0 | 0.00 | 0.24 | 0.00 | 100 | 1014.1 |
| 20260507223634 | 54 | 192 | 0.0 | 0.9 | 0.01 | 0.24 | 0.00 | 100 | 1014.0 |
| 20260507223621 | 53 | 184 | 0.0 | 0.0 | 0.00 | 0.24 | 0.00 | 100 | 1014.1 |
| 20260507223604 | 53 | 184 | 0.0 | 0.0 | 0.00 | 0.24 | 0.00 | 100 | 1014.2 |
| 20260507223548 | 53 | 182 | 0.0 | 0.0 | 0.00 | 0.24 | 0.00 | 100 | 1014.3 |
| 20260507223532 | 53 | 182 | 0.0 | 0.0 | 0.00 | 0.24 | 0.00 | 100 | 1014.3 |
| 20260507223516 | 53 | 182 | 0.0 | 0.0 | 0.00 | 0.24 | 0.00 | 100 | 1013.9 |
| 20260507223247 | 53 | 178 | 0.0 | 0.0 | 0.00 | 0.24 | 0.00 | 100 | 1014.1 |
| 20260507223023 | 53 | 179 | 0.0 | 0.0 | 0.00 | 0.24 | 0.00 | 100 | 1014.5 |
| 20260507223008 | 53 | 171 | 0.0 | 0.0 | 0.00 | 0.24 | 0.00 | 100 | 1014.2 |
| 20260507222952 | 53 | 181 | 0.0 | 0.0 | 0.00 | 0.24 | 0.00 | 100 | 1014.2 |
| 20260507222732 | 54 | 187 | 0.0 | 0.0 | 0.01 | 0.24 | 0.00 | 100 | 1014.3 |
| 20260507222724 | 53 | 159 | 0.0 | 0.0 | 0.00 | 0.24 | 0.00 | 100 | 1014.2 |
| 20260507222702 | 54 | 169 | 0.0 | 0.0 | 0.00 | 0.24 | 0.00 | 100 | 1014.2 |
| 20260507222646 | 54 | 147 | 0.0 | 0.0 | 0.00 | 0.24 | 0.00 | 100 | 1014.5 |
| 20260507222411 | 54 | 190 | 0.0 | 0.0 | 0.01 | 0.24 | 0.00 | 100 | 1014.1 |
| 20260507222356 | 54 | 188 | 0.0 | 0.0 | 0.01 | 0.24 | 0.00 | 100 | 1014.3 |
| 20260507222332 | 54 | 188 | 0.0 | 0.0 | 0.01 | 0.24 | 0.00 | 100 | 1014.3 |
| 20260507222316 | 54 | 186 | 0.0 | 0.0 | 0.01 | 0.24 | 0.00 | 100 | 1014.3 |
| 20260507222259 | 54 | 180 | 0.0 | 0.9 | 0.01 | 0.24 | 0.00 | 100 | 1014.6 |
| 20260507222244 | 54 | 192 | 0.0 | 0.9 | 0.01 | 0.24 | 0.00 | 100 | 1014.1 |
| 20260507222228 | 54 | 192 | 0.0 | 0.9 | 0.01 | 0.24 | 0.00 | 100 | 1014.2 |
| 20260507222210 | 54 | 192 | 0.0 | 0.9 | 0.01 | 0.24 | 0.00 | 100 | 1014.0 |
| 20260507221945 | 54 | 191 | 0.0 | 0.9 | 0.01 | 0.24 | 0.00 | 100 | 1014.2 |
| 20260507221929 | 54 | 191 | 0.0 | 0.9 | 0.01 | 0.24 | 0.00 | 100 | 1014.3 |
| 20260507221654 | 54 | 184 | 0.0 | 0.9 | 0.01 | 0.24 | 0.00 | 100 | 1014.1 |
| 20260507221629 | 54 | 181 | 0.0 | 0.9 | 0.01 | 0.24 | 0.00 | 100 | 1014.2 |
| 20260507221614 | 54 | 200 | 0.0 | 0.9 | 0.01 | 0.24 | 0.00 | 100 | 1014.1 |
| 20260507221337 | 54 | 188 | 0.0 | 0.0 | 0.01 | 0.24 | 0.00 | 100 | 1014.0 |
| 20260507221322 | 54 | 188 | 0.0 | 0.0 | 0.01 | 0.24 | 0.00 | 100 | 1014.0 |
| 20260507220407 | 54 | 183 | 0.0 | 0.0 | 0.01 | 0.24 | 0.00 | 100 | 1014.0 |
| 20260507220351 | 54 | 182 | 0.0 | 0.0 | 0.01 | 0.24 | 0.00 | 100 | 1013.8 |
| 20260507220336 | 54 | 191 | 0.0 | 0.0 | 0.01 | 0.24 | 0.00 | 100 | 1014.0 |
| 20260507220312 | 54 | 191 | 0.0 | 0.0 | 0.01 | 0.24 | 0.00 | 100 | 1014.2 |
| 20260507220037 | 54 | 191 | 0.0 | 0.0 | 0.01 | 0.24 | 0.35 | 100 | 1014.1 |
| 20260507220021 | 54 | 176 | 0.0 | 0.0 | 0.01 | 0.24 | 0.35 | 100 | 1014.0 |
| 20260507220006 | 54 | 184 | 0.0 | 0.0 | 0.01 | 0.24 | 0.35 | 100 | 1014.0 |
| 20260507215942 | 54 | 186 | 0.0 | 0.0 | 0.01 | 0.24 | 0.35 | 100 | 1013.9 |
| 20260507215708 | 54 | 186 | 0.0 | 0.0 | 0.01 | 0.24 | 0.35 | 100 | 1014.0 |
| 20260507215653 | 54 | 190 | 0.0 | 0.0 | 0.01 | 0.24 | 0.35 | 100 | 1013.8 |
| 20260507215636 | 54 | 191 | 0.0 | 0.0 | 0.01 | 0.24 | 0.35 | 100 | 1013.9 |
| 20260507215616 | 54 | 187 | 0.0 | 0.0 | 0.01 | 0.24 | 0.35 | 100 | 1014.0 |
| 20260507215132 | 54 | 186 | 0.0 | 0.0 | 0.01 | 0.24 | 0.35 | 100 | 1013.9 |
| 20260507215116 | 54 | 177 | 0.0 | 0.0 | 0.01 | 0.24 | 0.35 | 100 | 1013.7 |
| 20260507215101 | 54 | 176 | 0.0 | 0.0 | 0.01 | 0.24 | 0.35 | 100 | 1013.7 |
| 20260507214834 | 54 | 175 | 0.0 | 0.0 | 0.01 | 0.24 | 0.35 | 100 | 1013.9 |
| 20260507214558 | 54 | 184 | 0.0 | 0.0 | 0.01 | 0.24 | 0.35 | 100 | 1014.0 |
| 20260507214322 | 54 | 174 | 0.0 | 0.0 | 0.01 | 0.24 | 0.35 | 100 | 1013.9 |
| 20260507214054 | 54 | 182 | 0.0 | 0.0 | 0.01 | 0.24 | 0.35 | 100 | 1014.0 |
| 20260507213954 | 54 | 172 | 0.0 | 0.0 | 0.01 | 0.24 | 0.35 | 100 | 1013.8 |
| 20260507213932 | 54 | 177 | 0.0 | 0.0 | 0.01 | 0.24 | 0.35 | 100 | 1013.8 |
| 20260507213916 | 54 | 160 | 0.0 | 0.0 | 0.01 | 0.24 | 0.35 | 100 | 1013.9 |
| 20260507213859 | 55 | 180 | 0.0 | 0.0 | 0.01 | 0.24 | 0.35 | 100 | 1013.8 |
| 20260507213835 | 55 | 152 | 0.0 | 0.0 | 0.01 | 0.24 | 0.35 | 100 | 1013.8 |
| 20260507213818 | 55 | 185 | 0.0 | 0.0 | 0.01 | 0.24 | 0.35 | 100 | 1013.6 |
| 20260507213542 | 55 | 171 | 0.0 | 0.0 | 0.01 | 0.24 | 0.35 | 100 | 1013.5 |
| 20260507213054 | 55 | 175 | 0.0 | 0.0 | 0.01 | 0.24 | 0.35 | 100 | 1013.7 |
| 20260507212955 | 55 | 181 | 0.0 | 0.0 | 0.01 | 0.24 | 0.35 | 100 | 1013.6 |
| 20260507212929 | 55 | 182 | 0.0 | 0.0 | 0.01 | 0.24 | 0.35 | 100 | 1013.7 |
| 20260507212913 | 55 | 184 | 0.0 | 0.0 | 0.01 | 0.24 | 0.35 | 100 | 1013.6 |
| 20260507212554 | 55 | 186 | 0.0 | 0.0 | 0.01 | 0.24 | 0.35 | 100 | 1013.9 |
| 20260507212530 | 55 | 179 | 0.0 | 0.0 | 0.01 | 0.24 | 0.35 | 100 | 1014.0 |
| 20260507212514 | 55 | 183 | 0.0 | 0.0 | 0.00 | 0.23 | 0.34 | 100 | 1014.0 |
| 20260507212154 | 55 | 190 | 0.0 | 0.0 | 0.00 | 0.23 | 0.34 | 100 | 1014.0 |
| 20260507212054 | 55 | 187 | 0.0 | 0.0 | 0.00 | 0.23 | 0.34 | 100 | 1014.0 |
| 20260507211954 | 55 | 188 | 0.0 | 0.0 | 0.00 | 0.23 | 0.34 | 100 | 1013.9 |
| 20260507211854 | 55 | 183 | 0.0 | 0.0 | 0.00 | 0.23 | 0.34 | 100 | 1013.8 |
| 20260507211755 | 55 | 191 | 0.0 | 0.0 | 0.00 | 0.23 | 0.34 | 100 | 1014.1 |
| 20260507211656 | 55 | 191 | 0.0 | 0.0 | 0.00 | 0.23 | 0.34 | 100 | 1014.0 |
| 20260507211554 | 55 | 191 | 0.0 | 0.0 | 0.00 | 0.23 | 0.34 | 100 | 1014.0 |
| 20260507211532 | 55 | 191 | 0.0 | 0.0 | 0.00 | 0.23 | 0.34 | 100 | 1014.1 |
| 20260507211515 | 55 | 191 | 0.0 | 0.0 | 0.00 | 0.23 | 0.34 | 100 | 1013.9 |
| 20260507211154 | 55 | 191 | 0.0 | 0.0 | 0.00 | 0.23 | 0.34 | 100 | 1014.0 |
| 20260507211054 | 55 | 191 | 0.0 | 0.0 | 0.00 | 0.23 | 0.34 | 100 | 1013.8 |
| 20260507210955 | 55 | 191 | 0.0 | 0.0 | 0.00 | 0.23 | 0.34 | 100 | 1013.9 |
| 20260507210853 | 55 | 191 | 0.0 | 0.0 | 0.00 | 0.23 | 0.34 | 100 | 1014.0 |
| 20260507210754 | 55 | 191 | 0.0 | 0.0 | 0.00 | 0.23 | 0.34 | 100 | 1013.7 |
| 20260507210654 | 55 | 191 | 0.0 | 0.0 | 0.00 | 0.23 | 0.34 | 100 | 1013.7 |
| 20260507210555 | 55 | 191 | 0.0 | 0.0 | 0.00 | 0.23 | 0.34 | 100 | 1014.0 |
| 20260507210454 | 55 | 191 | 0.0 | 0.0 | 0.00 | 0.23 | 0.34 | 100 | 1013.7 |
| 20260507210356 | 55 | 191 | 0.0 | 0.0 | 0.01 | 0.23 | 0.34 | 100 | 1013.9 |
| 20260507210259 | 55 | 191 | 0.0 | 0.0 | 0.01 | 0.23 | 0.34 | 100 | 1013.8 |
| 20260507210243 | 55 | 191 | 0.0 | 0.0 | 0.01 | 0.23 | 0.34 | 100 | 1013.7 |
| 20260507210219 | 55 | 191 | 0.0 | 0.0 | 0.01 | 0.23 | 0.34 | 100 | 1013.9 |
| 20260507210150 | 55 | 191 | 0.0 | 0.0 | 0.01 | 0.23 | 0.34 | 100 | 1013.8 |
| 20260507205914 | 55 | 190 | 0.0 | 0.0 | 0.02 | 0.23 | 0.34 | 100 | 1013.6 |
| 20260507205554 | 55 | 191 | 0.0 | 0.0 | 0.02 | 0.23 | 0.34 | 100 | 1013.7 |
| 20260507205454 | 55 | 191 | 0.0 | 0.0 | 0.02 | 0.23 | 0.34 | 100 | 1013.9 |
| 20260507205354 | 55 | 191 | 0.0 | 0.0 | 0.02 | 0.23 | 0.34 | 100 | 1013.7 |
| 20260507205255 | 55 | 192 | 0.0 | 0.0 | 0.02 | 0.23 | 0.34 | 100 | 1013.8 |
| 20260507205153 | 55 | 194 | 0.0 | 0.0 | 0.02 | 0.23 | 0.34 | 100 | 1013.8 |
| 20260507205054 | 55 | 194 | 0.0 | 0.0 | 0.02 | 0.23 | 0.34 | 100 | 1013.8 |
| 20260507204955 | 55 | 194 | 0.0 | 0.0 | 0.02 | 0.23 | 0.34 | 100 | 1013.9 |
| 20260507204855 | 55 | 194 | 0.0 | 0.0 | 0.02 | 0.23 | 0.34 | 100 | 1014.0 |
| 20260507204755 | 55 | 194 | 0.0 | 0.0 | 0.02 | 0.23 | 0.34 | 100 | 1014.1 |
| 20260507204655 | 55 | 194 | 0.0 | 0.0 | 0.02 | 0.23 | 0.34 | 100 | 1013.9 |
| 20260507204554 | 55 | 194 | 0.0 | 0.0 | 0.02 | 0.23 | 0.34 | 100 | 1014.0 |
| 20260507204454 | 55 | 194 | 0.0 | 0.0 | 0.03 | 0.23 | 0.34 | 100 | 1013.9 |
| 20260507204356 | 55 | 194 | 0.0 | 0.0 | 0.03 | 0.23 | 0.34 | 100 | 1013.6 |
| 20260507204255 | 55 | 192 | 0.0 | 0.0 | 0.04 | 0.23 | 0.34 | 100 | 1013.9 |
| 20260507204154 | 55 | 192 | 0.0 | 0.0 | 0.04 | 0.23 | 0.34 | 100 | 1013.6 |
| 20260507204107 | 55 | 192 | 0.0 | 0.0 | 0.04 | 0.23 | 0.34 | 100 | 1013.7 |
| 20260507203954 | 55 | 192 | 0.0 | 0.0 | 0.04 | 0.23 | 0.34 | 100 | 1013.8 |
| 20260507203854 | 55 | 193 | 0.0 | 0.0 | 0.04 | 0.23 | 0.34 | 100 | 1013.8 |
| 20260507203753 | 55 | 192 | 0.0 | 0.0 | 0.04 | 0.23 | 0.34 | 100 | 1013.6 |
| 20260507203655 | 55 | 192 | 0.0 | 0.0 | 0.04 | 0.23 | 0.34 | 100 | 1013.6 |
| 20260507203554 | 55 | 193 | 0.0 | 0.0 | 0.04 | 0.23 | 0.34 | 100 | 1013.3 |
| 20260507203455 | 55 | 193 | 0.0 | 0.0 | 0.04 | 0.23 | 0.34 | 100 | 1013.5 |
| 20260507203354 | 55 | 193 | 0.0 | 0.0 | 0.05 | 0.23 | 0.34 | 100 | 1013.7 |
| 20260507203255 | 55 | 193 | 0.0 | 0.0 | 0.05 | 0.23 | 0.34 | 100 | 1013.5 |
| 20260507203154 | 55 | 192 | 0.0 | 0.0 | 0.05 | 0.23 | 0.34 | 100 | 1013.3 |
| 20260507203054 | 55 | 192 | 0.0 | 0.0 | 0.05 | 0.23 | 0.34 | 100 | 1013.5 |
| 20260507202953 | 55 | 192 | 0.0 | 0.0 | 0.05 | 0.23 | 0.34 | 100 | 1013.8 |
| 20260507202856 | 55 | 193 | 0.0 | 0.0 | 0.05 | 0.23 | 0.34 | 100 | 1013.3 |
| 20260507202840 | 55 | 192 | 0.0 | 0.0 | 0.05 | 0.23 | 0.34 | 100 | 1013.4 |
| 20260507202823 | 55 | 192 | 0.0 | 0.0 | 0.05 | 0.23 | 0.34 | 100 | 1013.4 |
| 20260507202556 | 55 | 192 | 0.0 | 0.0 | 0.05 | 0.23 | 0.34 | 100 | 1013.4 |
| 20260507202454 | 55 | 192 | 0.0 | 0.0 | 0.05 | 0.23 | 0.34 | 100 | 1013.4 |
| 20260507202354 | 55 | 192 | 0.0 | 0.0 | 0.05 | 0.23 | 0.34 | 100 | 1013.3 |
| 20260507202255 | 55 | 192 | 0.0 | 0.0 | 0.05 | 0.23 | 0.34 | 100 | 1013.2 |
| 20260507202154 | 55 | 192 | 0.0 | 0.0 | 0.05 | 0.23 | 0.34 | 100 | 1013.3 |
| 20260507202055 | 55 | 192 | 0.0 | 0.0 | 0.05 | 0.23 | 0.34 | 100 | 1013.3 |
| 20260507201953 | 55 | 192 | 0.0 | 0.0 | 0.05 | 0.23 | 0.34 | 100 | 1013.2 |
| 20260507201855 | 55 | 192 | 0.0 | 0.0 | 0.05 | 0.23 | 0.34 | 100 | 1013.3 |
| 20260507201755 | 55 | 192 | 0.0 | 0.0 | 0.05 | 0.23 | 0.34 | 100 | 1013.2 |
| 20260507201654 | 55 | 170 | 0.0 | 0.0 | 0.05 | 0.23 | 0.34 | 100 | 1013.3 |
| 20260507201554 | 55 | 192 | 0.0 | 0.9 | 0.05 | 0.23 | 0.34 | 100 | 1013.2 |
| 20260507201454 | 55 | 189 | 0.0 | 0.9 | 0.05 | 0.23 | 0.34 | 100 | 1013.3 |
| 20260507201354 | 55 | 194 | 0.0 | 0.9 | 0.05 | 0.23 | 0.34 | 100 | 1013.2 |
| 20260507201254 | 55 | 196 | 0.0 | 0.9 | 0.05 | 0.23 | 0.34 | 100 | 1013.3 |
| 20260507201154 | 55 | 196 | 0.0 | 0.9 | 0.05 | 0.23 | 0.34 | 100 | 1013.4 |
| 20260507201054 | 55 | 192 | 0.0 | 1.7 | 0.05 | 0.23 | 0.34 | 100 | 1013.3 |
| 20260507200954 | 55 | 192 | 0.0 | 2.6 | 0.05 | 0.23 | 0.34 | 100 | 1013.3 |
| 20260507200929 | 55 | 191 | 0.0 | 2.6 | 0.05 | 0.23 | 0.34 | 100 | 1013.4 |
| 20260507200914 | 55 | 190 | 0.0 | 2.6 | 0.05 | 0.23 | 0.34 | 100 | 1013.2 |
| 20260507200554 | 55 | 191 | 0.0 | 2.6 | 0.05 | 0.23 | 0.34 | 100 | 1013.2 |
| 20260507200455 | 55 | 183 | 0.0 | 2.6 | 0.05 | 0.23 | 0.34 | 100 | 1013.3 |
| 20260507200355 | 55 | 177 | 0.0 | 2.6 | 0.04 | 0.22 | 0.33 | 100 | 1013.1 |
| 20260507200255 | 55 | 114 | 0.0 | 2.6 | 0.04 | 0.22 | 0.33 | 100 | 1013.1 |
| 20260507200154 | 55 | 109 | 0.0 | 2.6 | 0.04 | 0.22 | 0.33 | 100 | 1012.9 |
| 20260507200108 | 55 | 49 | 1.7 | 2.6 | 0.04 | 0.22 | 0.33 | 100 | 1012.9 |
| 20260507200031 | 55 | 120 | 0.0 | 2.6 | 0.04 | 0.22 | 0.33 | 100 | 1012.8 |
| 20260507200015 | 55 | 92 | 0.9 | 2.6 | 0.03 | 0.21 | 0.32 | 100 | 1012.8 |
| 20260507200000 | 55 | 84 | 0.0 | 2.6 | 0.03 | 0.21 | 0.32 | 100 | 1012.8 |
| 20260507195943 | 55 | 57 | 0.9 | 2.6 | 0.03 | 0.21 | 0.32 | 100 | 1012.9 |
| 20260507195715 | 55 | 105 | 0.0 | 2.6 | 0.03 | 0.21 | 0.32 | 100 | 1012.9 |
| 20260507195354 | 55 | 108 | 0.0 | 2.6 | 0.03 | 0.21 | 0.32 | 100 | 1013.0 |
| 20260507195255 | 55 | 69 | 0.0 | 2.6 | 0.03 | 0.21 | 0.32 | 100 | 1012.7 |
| 20260507195155 | 55 | 58 | 0.9 | 2.6 | 0.03 | 0.21 | 0.32 | 100 | 1013.0 |
| 20260507195054 | 55 | 59 | 0.9 | 2.6 | 0.03 | 0.21 | 0.32 | 100 | 1013.0 |
| 20260507194954 | 55 | 79 | 0.0 | 0.9 | 0.03 | 0.21 | 0.32 | 100 | 1013.0 |
| 20260507194853 | 55 | 54 | 0.0 | 0.9 | 0.03 | 0.21 | 0.32 | 100 | 1013.0 |
| 20260507194754 | 55 | 94 | 0.0 | 0.9 | 0.03 | 0.21 | 0.32 | 100 | 1013.1 |
| 20260507194654 | 55 | 118 | 0.0 | 0.9 | 0.03 | 0.21 | 0.32 | 100 | 1013.1 |
| 20260507194555 | 55 | 151 | 0.0 | 0.9 | 0.03 | 0.21 | 0.32 | 100 | 1013.3 |
| 20260507194533 | 55 | 140 | 0.0 | 0.9 | 0.02 | 0.20 | 0.31 | 100 | 1013.4 |
| 20260507194516 | 55 | 151 | 0.0 | 0.9 | 0.02 | 0.20 | 0.31 | 100 | 1013.5 |
| 20260507194241 | 55 | 192 | 0.0 | 0.9 | 0.01 | 0.19 | 0.30 | 100 | 1013.5 |
| 20260507194215 | 55 | 199 | 0.0 | 0.9 | 0.01 | 0.19 | 0.30 | 100 | 1013.5 |
| 20260507193854 | 55 | 187 | 0.0 | 0.0 | 0.01 | 0.19 | 0.30 | 100 | 1013.5 |
| 20260507193754 | 55 | 187 | 0.0 | 0.0 | 0.01 | 0.19 | 0.30 | 100 | 1013.6 |
| 20260507193654 | 55 | 186 | 0.0 | 0.0 | 0.01 | 0.19 | 0.30 | 100 | 1013.7 |
| 20260507193554 | 55 | 186 | 0.0 | 0.0 | 0.01 | 0.19 | 0.30 | 100 | 1013.5 |
| 20260507193454 | 55 | 188 | 0.0 | 0.0 | 0.01 | 0.19 | 0.30 | 100 | 1013.6 |
| 20260507193359 | 55 | 188 | 0.0 | 0.0 | 0.00 | 0.18 | 0.29 | 100 | 1013.5 |
| 20260507193354 | 55 | 188 | 0.0 | 0.0 | 0.00 | 0.18 | 0.29 | 100 | 1013.5 |
| 20260507193339 | 55 | 188 | 0.0 | 0.0 | 0.00 | 0.18 | 0.29 | 100 | 1013.6 |
| 20260507193324 | 55 | 188 | 0.0 | 0.0 | 0.00 | 0.18 | 0.29 | 100 | 1013.5 |
| 20260507193304 | 55 | 188 | 0.0 | 0.0 | 0.00 | 0.18 | 0.29 | 100 | 1013.5 |
| 20260507193029 | 55 | 188 | 0.0 | 0.0 | 0.00 | 0.18 | 0.29 | 100 | 1013.5 |
| 20260507193013 | 55 | 188 | 0.0 | 0.0 | 0.00 | 0.18 | 0.29 | 100 | 1013.4 |
| 20260507192733 | 55 | 188 | 0.0 | 0.0 | 0.00 | 0.18 | 0.29 | 100 | 1013.7 |
| 20260507192711 | 55 | 188 | 0.0 | 0.0 | 0.00 | 0.18 | 0.29 | 100 | 1013.5 |
| 20260507192655 | 55 | 188 | 0.0 | 0.0 | 0.00 | 0.18 | 0.29 | 100 | 1013.5 |
| 20260507192431 | 55 | 188 | 0.0 | 0.0 | 0.00 | 0.18 | 0.29 | 100 | 1013.4 |
| 20260507192417 | 55 | 188 | 0.0 | 1.7 | 0.00 | 0.18 | 0.29 | 100 | 1013.1 |
| 20260507192401 | 55 | 188 | 0.0 | 1.7 | 0.00 | 0.18 | 0.29 | 100 | 1013.1 |
| 20260507192129 | 55 | 188 | 0.0 | 1.7 | 0.00 | 0.18 | 0.29 | 100 | 1013.3 |
| 20260507192112 | 55 | 188 | 0.0 | 2.6 | 0.00 | 0.18 | 0.29 | 100 | 1013.2 |
| 20260507192056 | 55 | 188 | 0.0 | 2.6 | 0.00 | 0.18 | 0.29 | 100 | 1013.1 |
| 20260507192041 | 55 | 190 | 0.0 | 2.6 | 0.00 | 0.18 | 0.29 | 100 | 1013.0 |
| 20260507192025 | 55 | 190 | 0.0 | 2.6 | 0.00 | 0.18 | 0.29 | 100 | 1013.2 |
| 20260507191454 | 55 | 183 | 0.0 | 2.6 | 0.00 | 0.18 | 0.29 | 100 | 1012.8 |
| 20260507191356 | 55 | 78 | 1.7 | 2.6 | 0.00 | 0.18 | 0.29 | 100 | 1012.8 |
| 20260507191340 | 55 | 49 | 0.0 | 2.6 | 0.00 | 0.18 | 0.29 | 100 | 1012.9 |
| 20260507191324 | 55 | 130 | 0.0 | 2.6 | 0.00 | 0.18 | 0.29 | 100 | 1012.8 |
| 20260507191305 | 55 | 78 | 1.7 | 2.6 | 0.00 | 0.18 | 0.29 | 100 | 1012.8 |
| 20260507191029 | 55 | 114 | 0.0 | 3.5 | 0.03 | 0.18 | 0.29 | 100 | 1012.4 |
| 20260507191019 | 55 | 155 | 0.0 | 2.6 | 0.00 | 0.18 | 0.29 | 100 | 1012.5 |
| 20260507191004 | 55 | 112 | 0.9 | 2.6 | 0.00 | 0.18 | 0.29 | 100 | 1012.8 |
| 20260507190948 | 55 | 153 | 0.0 | 2.6 | 0.01 | 0.18 | 0.29 | 100 | 1012.7 |
| 20260507190705 | 55 | 136 | 0.0 | 2.6 | 0.01 | 0.18 | 0.29 | 100 | 1012.6 |
| 20260507190649 | 55 | 67 | 0.0 | 2.6 | 0.01 | 0.18 | 0.29 | 100 | 1012.7 |
| 20260507190412 | 55 | 171 | 0.0 | 3.5 | 0.02 | 0.18 | 0.29 | 100 | 1012.7 |
| 20260507190355 | 55 | 58 | 1.7 | 3.5 | 0.02 | 0.18 | 0.29 | 100 | 1012.6 |
| 20260507190123 | 55 | 74 | 0.0 | 3.5 | 0.02 | 0.18 | 0.29 | 100 | 1012.6 |
| 20260507190054 | 55 | 146 | 0.0 | 3.5 | 0.02 | 0.18 | 0.29 | 100 | 1012.5 |
| 20260507190037 | 55 | 143 | 0.0 | 3.5 | 0.02 | 0.18 | 0.29 | 100 | 1012.6 |
| 20260507190022 | 55 | 112 | 0.0 | 3.5 | 0.02 | 0.18 | 0.29 | 100 | 1012.4 |
| 20260507190006 | 55 | 114 | 0.9 | 3.5 | 0.03 | 0.18 | 0.29 | 100 | 1012.6 |
| 20260507185949 | 55 | 114 | 0.0 | 3.5 | 0.03 | 0.18 | 0.29 | 100 | 1012.4 |
| 20260507185502 | 55 | 59 | 0.9 | 3.5 | 0.03 | 0.18 | 0.29 | 100 | 1012.4 |
| 20260507185213 | 55 | 127 | 0.9 | 3.5 | 0.14 | 0.18 | 0.29 | 100 | 1012.5 |
| 20260507185204 | 55 | 108 | 0.9 | 1.7 | 0.06 | 0.18 | 0.29 | 100 | 1012.6 |
| 20260507185140 | 55 | 157 | 0.0 | 1.7 | 0.07 | 0.18 | 0.29 | 100 | 1012.6 |
| 20260507185124 | 55 | 163 | 0.0 | 1.7 | 0.07 | 0.18 | 0.29 | 100 | 1012.3 |
| 20260507185109 | 55 | 91 | 0.0 | 1.7 | 0.08 | 0.18 | 0.29 | 100 | 1012.4 |
| 20260507185053 | 55 | 115 | 0.0 | 1.7 | 0.09 | 0.18 | 0.29 | 100 | 1012.5 |
| 20260507185037 | 55 | 169 | 0.0 | 3.5 | 0.10 | 0.18 | 0.29 | 100 | 1012.7 |
| 20260507185015 | 55 | 124 | 0.0 | 3.5 | 0.10 | 0.18 | 0.29 | 100 | 1012.3 |
| 20260507184959 | 55 | 162 | 0.0 | 3.5 | 0.11 | 0.18 | 0.29 | 100 | 1012.3 |
| 20260507184944 | 55 | 128 | 0.9 | 3.5 | 0.12 | 0.18 | 0.29 | 100 | 1012.3 |
| 20260507184928 | 55 | 146 | 0.0 | 3.5 | 0.12 | 0.18 | 0.29 | 100 | 1012.4 |
| 20260507184912 | 55 | 146 | 0.0 | 3.5 | 0.13 | 0.18 | 0.29 | 100 | 1012.3 |
| 20260507184423 | 55 | 66 | 0.9 | 3.5 | 0.14 | 0.18 | 0.29 | 100 | 1012.6 |
| 20260507184407 | 55 | 120 | 0.0 | 3.5 | 0.14 | 0.18 | 0.29 | 100 | 1012.5 |
| 20260507184131 | 55 | 144 | 0.0 | 3.5 | 0.14 | 0.18 | 0.29 | 100 | 1012.5 |
| 20260507183904 | 55 | 169 | 0.0 | 3.5 | 0.14 | 0.18 | 0.29 | 100 | 1012.4 |
| 20260507183402 | 55 | 104 | 0.0 | 2.6 | 0.14 | 0.18 | 0.29 | 100 | 1012.3 |
| 20260507183041 | 55 | 89 | 0.0 | 2.6 | 0.14 | 0.18 | 0.29 | 100 | 1012.3 |
| 20260507182941 | 55 | 56 | 0.9 | 2.6 | 0.14 | 0.18 | 0.29 | 100 | 1012.6 |
| 20260507182742 | 55 | 174 | 0.0 | 2.6 | 0.14 | 0.18 | 0.29 | 100 | 1012.3 |
| 20260507182642 | 55 | 159 | 0.0 | 2.6 | 0.14 | 0.18 | 0.29 | 100 | 1012.3 |
| 20260507182603 | 55 | 179 | 0.0 | 2.6 | 0.14 | 0.18 | 0.29 | 100 | 1012.4 |
| 20260507182548 | 55 | 167 | 0.0 | 2.6 | 0.14 | 0.18 | 0.29 | 100 | 1012.3 |
| 20260507182531 | 55 | 162 | 0.0 | 3.5 | 0.14 | 0.18 | 0.29 | 100 | 1012.4 |
| 20260507182042 | 55 | 73 | 0.0 | 3.5 | 0.14 | 0.18 | 0.29 | 100 | 1012.4 |
| 20260507182011 | 55 | 150 | 0.0 | 3.5 | 0.14 | 0.18 | 0.29 | 100 | 1012.2 |
| 20260507181955 | 55 | 132 | 0.0 | 3.5 | 0.14 | 0.18 | 0.29 | 100 | 1012.1 |
| 20260507181939 | 55 | 30 | 0.9 | 3.5 | 0.14 | 0.18 | 0.29 | 100 | 1012.1 |
| 20260507181921 | 55 | 104 | 0.9 | 3.5 | 0.14 | 0.18 | 0.29 | 100 | 1012.2 |
| 20260507181900 | 55 | 69 | 0.9 | 3.5 | 0.14 | 0.18 | 0.29 | 100 | 1012.3 |
| 20260507181844 | 54 | 148 | 0.0 | 6.1 | 0.14 | 0.18 | 0.29 | 100 | 1011.9 |
| 20260507181605 | 54 | 57 | 0.9 | 6.1 | 0.14 | 0.18 | 0.29 | 100 | 1012.3 |
| 20260507181322 | 54 | 53 | 0.9 | 6.1 | 0.14 | 0.18 | 0.29 | 100 | 1012.2 |
| 20260507180740 | 54 | 58 | 1.7 | 6.1 | 0.13 | 0.17 | 0.28 | 100 | 1012.1 |
| 20260507180642 | 54 | 97 | 0.9 | 6.1 | 0.13 | 0.17 | 0.28 | 100 | 1012.3 |
| 20260507180541 | 54 | 27 | 1.7 | 6.1 | 0.13 | 0.17 | 0.28 | 100 | 1012.1 |
| 20260507180441 | 54 | 34 | 2.6 | 3.5 | 0.13 | 0.17 | 0.28 | 100 | 1012.2 |
| 20260507180342 | 54 | 357 | 2.6 | 3.5 | 0.13 | 0.16 | 0.27 | 100 | 1012.1 |
| 20260507180241 | 54 | 24 | 1.7 | 3.5 | 0.13 | 0.16 | 0.27 | 100 | 1012.1 |
| 20260507180142 | 54 | 172 | 0.0 | 3.5 | 0.13 | 0.16 | 0.27 | 100 | 1012.1 |
| 20260507180054 | 54 | 184 | 0.0 | 3.5 | 0.13 | 0.16 | 0.27 | 100 | 1012.1 |
| 20260507175940 | 54 | 159 | 0.9 | 3.5 | 0.14 | 0.16 | 0.27 | 100 | 1012.0 |
| 20260507175841 | 54 | 84 | 0.9 | 3.5 | 0.14 | 0.16 | 0.27 | 100 | 1012.0 |
| 20260507175741 | 54 | 134 | 0.0 | 3.5 | 0.15 | 0.16 | 0.27 | 100 | 1012.0 |
| 20260507175716 | 54 | 150 | 0.0 | 3.5 | 0.15 | 0.15 | 0.27 | 100 | 1012.0 |
| 20260507175654 | 55 | 34 | 1.7 | 3.5 | 0.15 | 0.15 | 0.26 | 100 | 1012.0 |
| 20260507175637 | 55 | 83 | 0.9 | 3.5 | 0.15 | 0.15 | 0.26 | 100 | 1011.9 |
| 20260507175622 | 55 | 141 | 0.0 | 3.5 | 0.15 | 0.15 | 0.26 | 100 | 1011.8 |
| 20260507175040 | 56 | 178 | 0.0 | 1.7 | 0.11 | 0.11 | 0.23 | 100 | 1011.8 |
| 20260507174950 | 57 | 152 | 0.0 | 6.1 | 0.04 | 0.04 | 0.15 | 99 | 1011.0 |
| 20260507174944 | 58 | 62 | 2.6 | 3.5 | 0.00 | 0.00 | 0.04 | 95 | 1010.7 |
| 20260507174940 | 56 | 166 | 0.0 | 2.6 | 0.11 | 0.11 | 0.22 | 100 | 1011.4 |
| 20260507174928 | 56 | 130 | 0.0 | 6.1 | 0.04 | 0.04 | 0.15 | 99 | 1011.0 |
| 20260507174919 | 56 | 123 | 0.9 | 2.6 | 0.10 | 0.10 | 0.21 | 100 | 1011.8 |
| 20260507174902 | 56 | 174 | 0.9 | 2.6 | 0.09 | 0.09 | 0.21 | 100 | 1011.8 |
| 20260507174846 | 56 | 194 | 0.0 | 2.6 | 0.08 | 0.08 | 0.20 | 100 | 1011.9 |
| 20260507174824 | 56 | 186 | 0.0 | 2.6 | 0.08 | 0.08 | 0.19 | 100 | 1011.9 |
| 20260507174809 | 56 | 118 | 0.0 | 2.6 | 0.07 | 0.07 | 0.18 | 100 | 1012.0 |
| 20260507174753 | 56 | 157 | 0.0 | 2.6 | 0.06 | 0.06 | 0.17 | 100 | 1011.9 |
| 20260507174518 | 56 | 156 | 0.0 | 2.6 | 0.05 | 0.05 | 0.16 | 100 | 1012.0 |
| 20260507174453 | 56 | 189 | 0.9 | 2.6 | 0.04 | 0.04 | 0.16 | 100 | 1011.8 |
| 20260507174436 | 56 | 44 | 0.9 | 2.6 | 0.04 | 0.04 | 0.15 | 100 | 1011.6 |
| 20260507174200 | 56 | 158 | 0.0 | 2.6 | 0.04 | 0.04 | 0.15 | 100 | 1011.7 |
| 20260507174144 | 56 | 183 | 0.0 | 2.6 | 0.04 | 0.04 | 0.15 | 100 | 1011.6 |
| 20260507174121 | 56 | 183 | 0.0 | 2.6 | 0.04 | 0.04 | 0.15 | 100 | 1011.7 |
| 20260507173845 | 56 | 149 | 0.0 | 2.6 | 0.04 | 0.04 | 0.15 | 100 | 1011.6 |
| 20260507173828 | 56 | 176 | 0.0 | 2.6 | 0.04 | 0.04 | 0.15 | 100 | 1011.7 |
| 20260507173812 | 56 | 157 | 0.0 | 3.5 | 0.04 | 0.04 | 0.15 | 100 | 1011.7 |
| 20260507173543 | 56 | 109 | 0.0 | 3.5 | 0.04 | 0.04 | 0.15 | 100 | 1011.6 |
| 20260507173528 | 56 | 145 | 0.0 | 3.5 | 0.04 | 0.04 | 0.15 | 100 | 1011.2 |
| 20260507173512 | 56 | 58 | 1.7 | 6.1 | 0.04 | 0.04 | 0.15 | 100 | 1011.2 |
| 20260507173457 | 56 | 123 | 0.0 | 6.1 | 0.04 | 0.04 | 0.15 | 100 | 1011.1 |
| 20260507173219 | 56 | 130 | 0.0 | 6.1 | 0.04 | 0.04 | 0.15 | 99 | 1011.0 |
| 20260507172301 | 56 | 119 | 0.0 | 6.1 | 0.04 | 0.04 | 0.15 | 99 | 1011.0 |
| 20260507172245 | 56 | 59 | 1.7 | 6.1 | 0.04 | 0.04 | 0.15 | 99 | 1011.0 |
| 20260507172220 | 56 | 91 | 0.9 | 6.1 | 0.04 | 0.04 | 0.15 | 99 | 1010.7 |
| 20260507172205 | 56 | 94 | 2.6 | 6.1 | 0.04 | 0.04 | 0.15 | 99 | 1011.0 |
| 20260507171929 | 56 | 113 | 0.0 | 3.5 | 0.04 | 0.04 | 0.15 | 99 | 1010.8 |
| 20260507171705 | 56 | 60 | 0.9 | 5.2 | 0.04 | 0.04 | 0.15 | 99 | 1010.8 |
| 20260507171643 | 56 | 162 | 0.9 | 5.2 | 0.04 | 0.04 | 0.15 | 99 | 1010.7 |
| 20260507171627 | 56 | 52 | 0.9 | 5.2 | 0.04 | 0.04 | 0.15 | 99 | 1010.9 |
| 20260507171611 | 56 | 109 | 0.0 | 5.2 | 0.04 | 0.04 | 0.15 | 99 | 1010.7 |
| 20260507171335 | 57 | 105 | 0.9 | 6.1 | 0.04 | 0.04 | 0.15 | 99 | 1010.8 |
| 20260507171316 | 57 | 152 | 0.0 | 6.1 | 0.04 | 0.04 | 0.15 | 99 | 1011.0 |
| 20260507171050 | 57 | 168 | 0.0 | 6.1 | 0.04 | 0.04 | 0.15 | 99 | 1011.0 |
| 20260507171035 | 57 | 108 | 0.0 | 6.1 | 0.04 | 0.04 | 0.15 | 98 | 1010.9 |
| 20260507170758 | 57 | 50 | 1.7 | 6.1 | 0.04 | 0.04 | 0.15 | 98 | 1010.9 |
| 20260507170736 | 57 | 90 | 0.0 | 6.1 | 0.04 | 0.04 | 0.15 | 98 | 1011.1 |
| 20260507170719 | 57 | 33 | 1.7 | 6.1 | 0.04 | 0.04 | 0.15 | 98 | 1010.8 |
| 20260507170703 | 57 | 44 | 1.7 | 6.1 | 0.03 | 0.03 | 0.15 | 98 | 1010.7 |
| 20260507170428 | 57 | 112 | 0.0 | 3.5 | 0.03 | 0.03 | 0.14 | 98 | 1011.0 |
| 20260507170200 | 58 | 37 | 2.6 | 3.5 | 0.03 | 0.03 | 0.14 | 98 | 1011.0 |
| 20260507170144 | 58 | 138 | 0.0 | 3.5 | 0.02 | 0.02 | 0.13 | 98 | 1010.8 |
| 20260507170129 | 58 | 146 | 0.0 | 3.5 | 0.02 | 0.02 | 0.13 | 97 | 1011.0 |
| 20260507170112 | 57 | 151 | 0.0 | 3.5 | 0.01 | 0.01 | 0.12 | 97 | 1011.0 |
| 20260507170056 | 57 | 132 | 0.0 | 3.5 | 0.00 | 0.00 | 0.12 | 97 | 1010.9 |
| 20260507165830 | 58 | 39 | 1.7 | 3.5 | 0.00 | 0.00 | 0.11 | 97 | 1011.0 |
| 20260507165814 | 58 | 46 | 1.7 | 3.5 | 0.00 | 0.00 | 0.11 | 97 | 1010.9 |
| 20260507165759 | 58 | 165 | 0.0 | 3.5 | 0.00 | 0.00 | 0.11 | 96 | 1010.7 |
| 20260507165743 | 58 | 76 | 1.7 | 3.5 | 0.00 | 0.00 | 0.11 | 96 | 1010.9 |
| 20260507164747 | 58 | 53 | 1.7 | 8.7 | 0.10 | 0.11 | 0.11 | 95 | 1010.7 |
| 20260507164648 | 59 | 149 | 0.0 | 8.7 | 0.09 | 0.10 | 0.10 | 94 | 1010.8 |
| 20260507164549 | 59 | 175 | 0.0 | 8.7 | 0.08 | 0.09 | 0.09 | 94 | 1010.5 |
| 20260507164530 | 59 | 70 | 0.9 | 8.7 | 0.08 | 0.09 | 0.09 | 93 | 1010.5 |
| 20260507164513 | 60 | 165 | 0.0 | 8.7 | 0.05 | 0.06 | 0.06 | 93 | 1010.9 |
| 20260507164453 | 60 | 24 | 0.9 | 7.8 | 0.05 | 0.06 | 0.06 | 93 | 1010.8 |
| 20260507164437 | 60 | 107 | 0.0 | 7.8 | 0.04 | 0.05 | 0.06 | 93 | 1010.7 |
| 20260507164208 | 60 | 176 | 0.9 | 7.8 | 0.03 | 0.04 | 0.05 | 92 | 1010.6 |
| 20260507163847 | 60 | 43 | 2.6 | 7.8 | 0.03 | 0.04 | 0.04 | 91 | 1010.5 |
| 20260507163747 | 60 | 136 | 0.9 | 7.8 | 0.03 | 0.04 | 0.04 | 90 | 1010.5 |
| 20260507163647 | 60 | 50 | 4.3 | 7.8 | 0.03 | 0.04 | 0.04 | 90 | 1010.4 |
| 20260507163547 | 61 | 41 | 4.3 | 7.0 | 0.02 | 0.03 | 0.03 | 89 | 1010.5 |
| 20260507163447 | 61 | 75 | 0.9 | 7.0 | 0.00 | 0.01 | 0.02 | 88 | 1010.6 |
| 20260507163347 | 61 | 14 | 2.6 | 7.0 | 0.00 | 0.01 | 0.01 | 88 | 1010.6 |
| 20260507163246 | 61 | 40 | 2.6 | 6.1 | 0.00 | 0.01 | 0.01 | 87 | 1010.5 |
| 20260507163231 | 61 | 103 | 0.9 | 6.1 | 0.00 | 0.01 | 0.01 | 87 | 1010.5 |
| 20260507163207 | 61 | 77 | 0.9 | 6.1 | 0.00 | 0.01 | 0.01 | 86 | 1010.5 |
| 20260507162848 | 61 | 94 | 1.7 | 6.1 | 0.00 | 0.01 | 0.01 | 86 | 1010.5 |
| 20260507162819 | 61 | 107 | 0.0 | 6.1 | 0.00 | 0.01 | 0.01 | 86 | 1010.2 |
| 20260507162802 | 61 | 70 | 0.9 | 6.1 | 0.00 | 0.01 | 0.01 | 85 | 1010.4 |
| 20260507162740 | 62 | 133 | 0.0 | 6.1 | 0.00 | 0.01 | 0.01 | 85 | 1010.5 |
| 20260507162724 | 62 | 55 | 1.7 | 6.1 | 0.00 | 0.01 | 0.01 | 85 | 1010.4 |
| 20260507162448 | 62 | 41 | 1.7 | 6.1 | 0.00 | 0.01 | 0.01 | 84 | 1010.4 |
| 20260507162431 | 62 | 77 | 0.9 | 6.1 | 0.00 | 0.01 | 0.01 | 84 | 1010.4 |
| 20260507162406 | 62 | 28 | 1.7 | 6.1 | 0.00 | 0.01 | 0.01 | 83 | 1010.2 |
| 20260507162349 | 63 | 89 | 0.0 | 5.2 | 0.00 | 0.01 | 0.01 | 82 | 1010.2 |
| 20260507161552 | 64 | 173 | 0.0 | 3.5 | 0.00 | 0.01 | 0.01 | 79 | 1010.1 |
| 20260507161448 | 64 | 156 | 1.7 | 3.5 | 0.00 | 0.01 | 0.01 | 77 | 1010.4 |
| 20260507161354 | 65 | 88 | 0.9 | 3.5 | 0.00 | 0.01 | 0.01 | 73 | 1010.4 |
| 20260507161349 | 64 | 130 | 0.0 | 3.5 | 0.00 | 0.01 | 0.01 | 76 | 1010.2 |
| 20260507161333 | 65 | 53 | 0.9 | 3.5 | 0.00 | 0.01 | 0.01 | 76 | 1010.1 |
| 20260507161317 | 65 | 16 | 0.9 | 3.5 | 0.00 | 0.01 | 0.01 | 75 | 1010.1 |
| 20260507161257 | 65 | 88 | 0.9 | 3.5 | 0.00 | 0.01 | 0.01 | 73 | 1010.4 |
| 20260507160948 | 66 | 146 | 0.9 | 3.5 | 0.00 | 0.01 | 0.01 | 73 | 1010.4 |
| 20260507160848 | 66 | 75 | 0.9 | 3.5 | 0.00 | 0.01 | 0.01 | 72 | 1010.1 |
| 20260507160747 | 66 | 154 | 0.0 | 1.7 | 0.00 | 0.01 | 0.01 | 71 | 1010.0 |
| 20260507160722 | 66 | 60 | 1.7 | 1.7 | 0.00 | 0.01 | 0.01 | 70 | 1010.1 |
| 20260507160659 | 67 | 106 | 0.0 | 1.7 | 0.00 | 0.01 | 0.01 | 69 | 1010.0 |
| 20260507160643 | 67 | 63 | 1.7 | 1.7 | 0.00 | 0.01 | 0.01 | 69 | 1010.0 |
| 20260507160628 | 67 | 171 | 0.0 | 1.7 | 0.00 | 0.01 | 0.01 | 68 | 1010.0 |
| 20260507160059 | 68 | 153 | 0.0 | 0.0 | 0.00 | 0.01 | 0.01 | 66 | 1010.0 |
| 20260507155946 | 68 | 189 | 0.0 | 0.0 | 0.00 | 0.01 | 0.01 | 65 | 1010.0 |
| 20260507155847 | 68 | 192 | 0.0 | 0.0 | 0.00 | 0.01 | 0.01 | 65 | 1009.9 |
| 20260507155825 | 68 | 190 | 0.0 | 0.9 | 0.00 | 0.01 | 0.01 | 65 | 1009.7 |
| 20260507155817 | 68 | 193 | 0.0 | 0.0 | 0.00 | 0.01 | 0.01 | 65 | 1009.8 |
| 20260507155801 | 68 | 193 | 0.0 | 0.0 | 0.00 | 0.01 | 0.01 | 64 | 1010.0 |
| 20260507155739 | 68 | 192 | 0.0 | 0.0 | 0.00 | 0.01 | 0.01 | 64 | 1010.1 |
| 20260507155723 | 68 | 192 | 0.0 | 0.0 | 0.00 | 0.01 | 0.01 | 64 | 1010.1 |
| 20260507155707 | 68 | 191 | 0.0 | 0.0 | 0.00 | 0.01 | 0.01 | 64 | 1009.9 |
| 20260507155652 | 68 | 190 | 0.0 | 0.0 | 0.00 | 0.01 | 0.01 | 64 | 1010.0 |
| 20260507155636 | 68 | 191 | 0.0 | 0.0 | 0.00 | 0.01 | 0.01 | 65 | 1009.8 |
| 20260507155144 | 68 | 191 | 0.0 | 1.7 | 0.00 | 0.01 | 0.01 | 65 | 1009.7 |
| 20260507154909 | 68 | 192 | 0.0 | 1.7 | 0.00 | 0.01 | 0.01 | 65 | 1009.8 |
| 20260507154547 | 68 | 195 | 0.0 | 1.7 | 0.00 | 0.01 | 0.01 | 65 | 1009.9 |
| 20260507154447 | 68 | 195 | 0.0 | 1.7 | 0.00 | 0.01 | 0.01 | 64 | 1009.8 |
| 20260507154433 | 68 | 189 | 0.0 | 2.6 | 0.00 | 0.01 | 0.01 | 64 | 1009.8 |
| 20260507154424 | 68 | 195 | 0.0 | 2.6 | 0.00 | 0.01 | 0.01 | 64 | 1010.0 |
| 20260507154407 | 68 | 195 | 0.0 | 2.6 | 0.00 | 0.01 | 0.01 | 64 | 1009.6 |
| 20260507154123 | 68 | 226 | 1.7 | 2.6 | 0.00 | 0.01 | 0.01 | 64 | 1009.9 |
| 20260507154107 | 68 | 195 | 0.0 | 2.6 | 0.00 | 0.01 | 0.01 | 64 | 1009.7 |
| 20260507154052 | 68 | 192 | 0.0 | 2.6 | 0.00 | 0.01 | 0.01 | 64 | 1009.8 |
| 20260507154036 | 68 | 202 | 0.0 | 2.6 | 0.00 | 0.01 | 0.01 | 64 | 1009.8 |
| 20260507153758 | 68 | 189 | 0.0 | 2.6 | 0.00 | 0.01 | 0.01 | 64 | 1009.8 |
| 20260507153447 | 69 | 212 | 0.9 | 2.6 | 0.00 | 0.01 | 0.01 | 63 | 1009.8 |
| 20260507153348 | 69 | 207 | 0.9 | 0.9 | 0.00 | 0.01 | 0.01 | 64 | 1009.9 |
| 20260507153250 | 69 | 207 | 0.0 | 0.9 | 0.00 | 0.01 | 0.01 | 63 | 1010.0 |
| 20260507153234 | 69 | 190 | 0.0 | 0.9 | 0.00 | 0.01 | 0.01 | 63 | 1009.8 |
| 20260507153209 | 69 | 190 | 0.0 | 0.9 | 0.00 | 0.01 | 0.01 | 63 | 1009.9 |
| 20260507152847 | 69 | 194 | 0.0 | 0.0 | 0.00 | 0.01 | 0.01 | 64 | 1009.9 |
| 20260507152747 | 69 | 193 | 0.0 | 0.0 | 0.00 | 0.01 | 0.01 | 64 | 1009.9 |
| 20260507152646 | 69 | 195 | 0.0 | 0.0 | 0.00 | 0.01 | 0.01 | 64 | 1009.9 |
| 20260507152622 | 69 | 190 | 0.0 | 0.0 | 0.00 | 0.01 | 0.01 | 64 | 1010.0 |
| 20260507152606 | 69 | 190 | 0.0 | 0.0 | 0.00 | 0.01 | 0.01 | 64 | 1010.0 |
| 20260507152247 | 69 | 190 | 0.0 | 0.0 | 0.00 | 0.01 | 0.01 | 64 | 1010.1 |
| 20260507152147 | 69 | 191 | 0.0 | 1.7 | 0.00 | 0.01 | 0.01 | 64 | 1009.8 |
| 20260507152049 | 69 | 187 | 0.0 | 1.7 | 0.00 | 0.01 | 0.01 | 64 | 1009.9 |
| 20260507151947 | 69 | 188 | 0.0 | 1.7 | 0.00 | 0.01 | 0.01 | 64 | 1010.0 |
| 20260507151852 | 69 | 188 | 0.0 | 1.7 | 0.00 | 0.01 | 0.01 | 64 | 1009.9 |
| 20260507151836 | 69 | 187 | 0.0 | 1.7 | 0.00 | 0.01 | 0.01 | 65 | 1010.1 |
| 20260507151819 | 69 | 186 | 0.0 | 1.7 | 0.00 | 0.01 | 0.01 | 64 | 1009.9 |
| 20260507151552 | 69 | 185 | 0.0 | 1.7 | 0.00 | 0.01 | 0.01 | 64 | 1009.9 |
| 20260507151448 | 69 | 179 | 0.0 | 1.7 | 0.00 | 0.01 | 0.01 | 63 | 1009.9 |
| 20260507151347 | 69 | 183 | 0.0 | 1.7 | 0.00 | 0.01 | 0.01 | 64 | 1009.9 |
| 20260507151247 | 69 | 192 | 0.0 | 1.7 | 0.00 | 0.01 | 0.01 | 64 | 1009.8 |
| 20260507151148 | 69 | 162 | 0.0 | 0.9 | 0.00 | 0.01 | 0.01 | 64 | 1009.9 |
| 20260507151046 | 69 | 189 | 0.0 | 0.0 | 0.00 | 0.01 | 0.01 | 63 | 1009.9 |
| 20260507150947 | 69 | 189 | 0.0 | 0.0 | 0.00 | 0.01 | 0.01 | 64 | 1009.6 |
| 20260507150846 | 69 | 189 | 0.0 | 0.0 | 0.00 | 0.01 | 0.01 | 63 | 1010.0 |
| 20260507150748 | 69 | 189 | 0.0 | 0.9 | 0.00 | 0.01 | 0.01 | 63 | 1009.9 |
| 20260507150653 | 69 | 189 | 0.0 | 0.9 | 0.00 | 0.01 | 0.01 | 63 | 1009.7 |
| 20260507150548 | 69 | 188 | 0.0 | 0.9 | 0.00 | 0.01 | 0.01 | 64 | 1009.7 |
| 20260507150448 | 69 | 187 | 0.0 | 0.9 | 0.00 | 0.01 | 0.01 | 63 | 1010.0 |
| 20260507150348 | 69 | 186 | 0.0 | 0.9 | 0.00 | 0.01 | 0.01 | 63 | 1009.9 |
| 20260507150247 | 69 | 182 | 0.0 | 0.9 | 0.00 | 0.01 | 0.01 | 63 | 1010.0 |
| 20260507150146 | 69 | 189 | 0.0 | 0.9 | 0.00 | 0.01 | 0.01 | 63 | 1009.9 |
| 20260507150100 | 69 | 177 | 0.0 | 1.7 | 0.00 | 0.01 | 0.01 | 63 | 1009.8 |
| 20260507145947 | 69 | 184 | 0.0 | 1.7 | 0.00 | 0.01 | 0.01 | 63 | 1009.9 |
| 20260507145847 | 69 | 185 | 0.0 | 1.7 | 0.00 | 0.01 | 0.01 | 63 | 1009.8 |
| 20260507145825 | 70 | 187 | 0.0 | 3.5 | 0.00 | 0.01 | 0.01 | 57 | 1009.7 |
| 20260507145817 | 69 | 183 | 0.0 | 1.7 | 0.00 | 0.01 | 0.01 | 63 | 1009.4 |
| 20260507145801 | 69 | 189 | 0.0 | 1.7 | 0.00 | 0.01 | 0.01 | 63 | 1009.8 |
| 20260507145739 | 69 | 183 | 0.0 | 1.7 | 0.00 | 0.01 | 0.01 | 62 | 1009.5 |
| 20260507145723 | 70 | 162 | 0.0 | 3.5 | 0.00 | 0.01 | 0.01 | 62 | 1009.9 |
| 20260507145446 | 70 | 192 | 0.0 | 3.5 | 0.00 | 0.01 | 0.01 | 60 | 1009.6 |
| 20260507145430 | 70 | 67 | 0.9 | 3.5 | 0.00 | 0.01 | 0.01 | 59 | 1009.4 |
| 20260507145406 | 70 | 204 | 0.0 | 3.5 | 0.00 | 0.01 | 0.01 | 58 | 1009.5 |
| 20260507145350 | 70 | 184 | 0.0 | 3.5 | 0.00 | 0.01 | 0.01 | 58 | 1009.7 |
| 20260507144852 | 70 | 189 | 0.0 | 3.5 | 0.00 | 0.01 | 0.01 | 57 | 1009.8 |
| 20260507144835 | 70 | 187 | 0.0 | 3.5 | 0.00 | 0.01 | 0.01 | 57 | 1009.7 |
| 20260507144608 | 70 | 202 | 0.0 | 3.5 | 0.00 | 0.01 | 0.01 | 56 | 1009.7 |
| 20260507144247 | 71 | 190 | 0.0 | 3.5 | 0.00 | 0.01 | 0.01 | 56 | 1009.6 |
| 20260507144147 | 71 | 241 | 0.0 | 7.8 | 0.00 | 0.01 | 0.01 | 56 | 1009.5 |
| 20260507144047 | 71 | 189 | 0.0 | 7.8 | 0.00 | 0.01 | 0.01 | 56 | 1009.6 |
| 20260507143947 | 71 | 181 | 1.7 | 7.8 | 0.00 | 0.01 | 0.01 | 56 | 1009.7 |
| 20260507143847 | 71 | 189 | 0.0 | 7.8 | 0.00 | 0.01 | 0.01 | 57 | 1009.5 |
| 20260507143829 | 71 | 188 | 0.0 | 7.8 | 0.00 | 0.01 | 0.01 | 56 | 1009.5 |
| 20260507143814 | 71 | 184 | 0.0 | 7.8 | 0.00 | 0.01 | 0.01 | 56 | 1009.5 |
| 20260507143746 | 71 | 187 | 0.0 | 7.8 | 0.00 | 0.01 | 0.01 | 56 | 1009.6 |
| 20260507143509 | 71 | 307 | 2.6 | 7.8 | 0.00 | 0.01 | 0.01 | 55 | 1009.5 |
| 20260507143453 | 71 | 203 | 3.5 | 7.8 | 0.00 | 0.01 | 0.01 | 55 | 1009.8 |
| 20260507143208 | 71 | 199 | 0.0 | 5.2 | 0.00 | 0.01 | 0.01 | 56 | 1009.4 |
| 20260507142846 | 71 | 181 | 0.9 | 2.6 | 0.00 | 0.01 | 0.01 | 56 | 1009.5 |
| 20260507142749 | 72 | 192 | 0.0 | 2.6 | 0.00 | 0.01 | 0.01 | 56 | 1009.6 |
| 20260507142647 | 72 | 150 | 0.0 | 3.5 | 0.00 | 0.01 | 0.01 | 56 | 1009.9 |
| 20260507142549 | 72 | 192 | 0.0 | 3.5 | 0.00 | 0.01 | 0.01 | 55 | 1009.6 |
| 20260507142447 | 72 | 198 | 0.0 | 3.5 | 0.00 | 0.01 | 0.01 | 55 | 1009.8 |
| 20260507142347 | 72 | 225 | 0.0 | 3.5 | 0.00 | 0.01 | 0.01 | 56 | 1009.5 |
| 20260507142247 | 72 | 186 | 0.0 | 3.5 | 0.00 | 0.01 | 0.01 | 57 | 1009.5 |
| 20260507142236 | 71 | 182 | 0.0 | 8.7 | 0.00 | 0.01 | 0.01 | 57 | 1009.8 |
| 20260507142226 | 71 | 192 | 0.0 | 3.5 | 0.00 | 0.01 | 0.01 | 57 | 1009.7 |
| 20260507142202 | 71 | 234 | 0.9 | 3.5 | 0.00 | 0.01 | 0.01 | 56 | 1009.5 |
| 20260507142146 | 71 | 187 | 0.0 | 3.5 | 0.00 | 0.01 | 0.01 | 56 | 1009.7 |
| 20260507142130 | 71 | 170 | 0.0 | 7.0 | 0.00 | 0.01 | 0.01 | 56 | 1009.7 |
| 20260507142115 | 71 | 208 | 2.6 | 7.0 | 0.00 | 0.01 | 0.01 | 56 | 1009.9 |
| 20260507141836 | 71 | 182 | 0.0 | 8.7 | 0.00 | 0.01 | 0.01 | 57 | 1009.8 |
| 20260507141609 | 71 | 76 | 0.0 | 8.7 | 0.00 | 0.01 | 0.01 | 56 | 1009.6 |
| 20260507141554 | 71 | 204 | 0.0 | 8.7 | 0.00 | 0.01 | 0.01 | 56 | 1009.7 |
| 20260507141538 | 71 | 157 | 0.0 | 8.7 | 0.00 | 0.01 | 0.01 | 56 | 1009.9 |
| 20260507141048 | 71 | 182 | 0.0 | 8.7 | 0.00 | 0.01 | 0.01 | 55 | 1009.7 |
| 20260507140947 | 71 | 253 | 1.7 | 8.7 | 0.00 | 0.01 | 0.01 | 55 | 1009.5 |
| 20260507140847 | 71 | 183 | 0.0 | 9.6 | 0.00 | 0.01 | 0.01 | 55 | 1009.6 |
| 20260507140747 | 71 | 258 | 0.9 | 9.6 | 0.00 | 0.01 | 0.01 | 55 | 1009.7 |
| 20260507140701 | 72 | 236 | 0.9 | 9.6 | 0.00 | 0.01 | 0.01 | 55 | 1009.6 |
| 20260507140638 | 72 | 183 | 0.0 | 9.6 | 0.00 | 0.01 | 0.01 | 55 | 1009.4 |
| 20260507140622 | 72 | 95 | 0.0 | 9.6 | 0.00 | 0.01 | 0.01 | 54 | 1009.7 |
| 20260507140346 | 72 | 184 | 0.0 | 9.6 | 0.00 | 0.01 | 0.01 | 55 | 1009.5 |
| 20260507140330 | 72 | 160 | 0.0 | 9.6 | 0.00 | 0.01 | 0.01 | 56 | 1009.5 |
| 20260507140100 | 72 | 188 | 0.0 | 11.3 | 0.00 | 0.01 | 0.01 | 55 | 1009.5 |
| 20260507135947 | 72 | 226 | 2.6 | 11.3 | 0.00 | 0.01 | 0.01 | 53 | 1009.4 |
| 20260507135925 | 72 | 202 | 3.5 | 11.3 | 0.00 | 0.01 | 0.01 | 54 | 1009.5 |
| 20260507135909 | 72 | 196 | 6.1 | 11.3 | 0.00 | 0.01 | 0.01 | 54 | 1009.5 |
| 20260507135547 | 72 | 167 | 0.0 | 11.3 | 0.00 | 0.01 | 0.01 | 53 | 1009.6 |
| 20260507135448 | 72 | 210 | 0.9 | 12.2 | 0.00 | 0.01 | 0.01 | 53 | 1009.8 |
| 20260507135347 | 72 | 186 | 0.0 | 12.2 | 0.00 | 0.01 | 0.01 | 54 | 1009.6 |
| 20260507135247 | 71 | 188 | 0.0 | 12.2 | 0.00 | 0.01 | 0.01 | 54 | 1009.6 |
| 20260507135227 | 71 | 345 | 4.3 | 12.2 | 0.00 | 0.01 | 0.01 | 53 | 1009.6 |
| 20260507135202 | 71 | 194 | 3.5 | 12.2 | 0.00 | 0.01 | 0.01 | 53 | 1009.5 |
| 20260507135145 | 71 | 153 | 0.0 | 12.2 | 0.00 | 0.01 | 0.01 | 53 | 1009.5 |
| 20260507134909 | 71 | 235 | 1.7 | 12.2 | 0.00 | 0.01 | 0.01 | 52 | 1009.8 |
| 20260507134623 | 72 | 248 | 7.8 | 12.2 | 0.00 | 0.01 | 0.01 | 51 | 1009.5 |
| 20260507134608 | 72 | 196 | 0.9 | 7.0 | 0.00 | 0.01 | 0.01 | 51 | 1009.9 |
| 20260507134248 | 72 | 245 | 2.6 | 7.0 | 0.00 | 0.01 | 0.01 | 50 | 1009.9 |
| 20260507134147 | 73 | 247 | 1.7 | 7.0 | 0.00 | 0.01 | 0.01 | 50 | 1009.8 |
| 20260507134047 | 73 | 220 | 0.9 | 6.1 | 0.00 | 0.01 | 0.01 | 51 | 1009.9 |
| 20260507133947 | 73 | 202 | 0.9 | 6.1 | 0.00 | 0.01 | 0.01 | 51 | 1009.9 |
| 20260507133922 | 73 | 209 | 0.0 | 6.1 | 0.00 | 0.01 | 0.01 | 51 | 1009.8 |
| 20260507133907 | 73 | 188 | 0.0 | 6.1 | 0.00 | 0.01 | 0.01 | 51 | 1009.8 |
| 20260507133623 | 73 | 186 | 0.0 | 3.5 | 0.00 | 0.01 | 0.01 | 51 | 1009.7 |
| 20260507133608 | 72 | 192 | 0.0 | 6.1 | 0.00 | 0.01 | 0.01 | 53 | 1009.6 |
| 20260507133247 | 72 | 230 | 0.0 | 6.1 | 0.00 | 0.01 | 0.01 | 50 | 1009.9 |
| 20260507133147 | 72 | 220 | 0.0 | 6.1 | 0.00 | 0.01 | 0.01 | 51 | 1010.0 |
| 20260507133049 | 72 | 195 | 0.0 | 6.1 | 0.00 | 0.01 | 0.01 | 52 | 1009.9 |
| 20260507132948 | 72 | 189 | 0.0 | 6.1 | 0.00 | 0.01 | 0.01 | 53 | 1010.0 |
| 20260507132847 | 72 | 189 | 0.0 | 6.1 | 0.00 | 0.01 | 0.01 | 53 | 1010.1 |
| 20260507132822 | 72 | 201 | 0.9 | 6.1 | 0.00 | 0.01 | 0.01 | 53 | 1010.0 |
| 20260507132806 | 72 | 196 | 0.0 | 6.1 | 0.00 | 0.01 | 0.01 | 53 | 1010.2 |
| 20260507132743 | 72 | 226 | 2.6 | 6.1 | 0.00 | 0.01 | 0.01 | 51 | 1010.0 |
| 20260507132508 | 72 | 196 | 0.0 | 3.5 | 0.00 | 0.01 | 0.01 | 57 | 1009.8 |
| 20260507132452 | 72 | 197 | 0.0 | 2.6 | 0.00 | 0.01 | 0.01 | 55 | 1010.0 |
| 20260507132436 | 72 | 186 | 0.9 | 2.6 | 0.00 | 0.01 | 0.01 | 56 | 1009.8 |
| 20260507132207 | 72 | 124 | 0.0 | 3.5 | 0.00 | 0.01 | 0.01 | 58 | 1009.8 |
| 20260507131847 | 72 | 194 | 0.0 | 3.5 | 0.00 | 0.01 | 0.01 | 65 | 1009.7 |
| 20260507131747 | 72 | 203 | 0.0 | 3.5 | 0.00 | 0.01 | 0.01 | 63 | 1010.1 |
| 20260507131647 | 72 | 182 | 0.9 | 3.5 | 0.00 | 0.01 | 0.01 | 64 | 1009.7 |
| 20260507131548 | 72 | 195 | 0.0 | 3.5 | 0.00 | 0.01 | 0.01 | 64 | 1009.8 |
| 20260507131447 | 71 | 195 | 0.0 | 3.5 | 0.00 | 0.01 | 0.01 | 63 | 1009.8 |
| 20260507131431 | 71 | 206 | 0.0 | 6.1 | 0.00 | 0.01 | 0.01 | 63 | 1010.0 |
| 20260507131422 | 71 | 191 | 0.0 | 3.5 | 0.00 | 0.01 | 0.01 | 63 | 1009.8 |
| 20260507131406 | 71 | 187 | 0.0 | 5.2 | 0.00 | 0.01 | 0.01 | 63 | 1010.1 |
| 20260507131351 | 71 | 225 | 0.9 | 5.2 | 0.00 | 0.01 | 0.01 | 63 | 1010.0 |
| 20260507131332 | 71 | 206 | 0.0 | 6.1 | 0.00 | 0.01 | 0.01 | 63 | 1010.0 |
| 20260507131106 | 71 | 184 | 0.9 | 6.1 | 0.00 | 0.01 | 0.01 | 64 | 1010.0 |
| 20260507130747 | 71 | 198 | 0.0 | 8.7 | 0.00 | 0.01 | 0.01 | 63 | 1009.9 |
| 20260507130721 | 71 | 237 | 0.0 | 13.9 | 0.00 | 0.01 | 0.01 | 63 | 1009.9 |
| 20260507130659 | 71 | 202 | 0.0 | 13.9 | 0.00 | 0.01 | 0.01 | 64 | 1009.8 |
| 20260507130644 | 71 | 186 | 0.0 | 13.9 | 0.00 | 0.01 | 0.01 | 64 | 1009.9 |
| 20260507130408 | 70 | 215 | 1.7 | 13.9 | 0.00 | 0.01 | 0.01 | 64 | 1009.8 |
| 20260507125947 | 70 | 105 | 0.9 | 13.9 | 0.00 | 0.01 | 0.01 | 64 | 1009.8 |
| 20260507125847 | 70 | 252 | 5.2 | 13.9 | 0.00 | 0.01 | 0.01 | 64 | 1009.9 |
| 20260507125805 | 70 | 194 | 0.0 | 9.6 | 0.00 | 0.01 | 0.01 | 63 | 1009.8 |
| 20260507125750 | 70 | 213 | 6.1 | 11.3 | 0.00 | 0.01 | 0.01 | 64 | 1009.9 |
| 20260507125733 | 69 | 192 | 0.0 | 11.3 | 0.00 | 0.01 | 0.01 | 67 | 1009.8 |
| 20260507125716 | 69 | 188 | 0.0 | 11.3 | 0.00 | 0.01 | 0.01 | 67 | 1009.8 |
| 20260507125659 | 69 | 198 | 0.0 | 11.3 | 0.00 | 0.01 | 0.01 | 66 | 1010.0 |
| 20260507125424 | 69 | 216 | 4.3 | 11.3 | 0.00 | 0.01 | 0.01 | 67 | 1009.9 |
| 20260507125400 | 69 | 200 | 0.9 | 11.3 | 0.00 | 0.01 | 0.01 | 67 | 1009.8 |
| 20260507125124 | 69 | 194 | 1.7 | 11.3 | 0.00 | 0.01 | 0.01 | 66 | 1009.9 |
| 20260507125108 | 69 | 171 | 0.9 | 11.3 | 0.00 | 0.01 | 0.01 | 67 | 1009.9 |
| 20260507125053 | 69 | 233 | 6.1 | 11.3 | 0.00 | 0.01 | 0.01 | 67 | 1010.0 |
| 20260507124826 | 69 | 253 | 4.3 | 7.8 | 0.00 | 0.01 | 0.01 | 67 | 1009.8 |
| 20260507124551 | 69 | 183 | 1.7 | 7.8 | 0.00 | 0.01 | 0.01 | 67 | 1010.0 |
| 20260507124315 | 68 | 203 | 0.9 | 7.8 | 0.00 | 0.01 | 0.01 | 68 | 1010.1 |
| 20260507124047 | 68 | 214 | 0.0 | 7.8 | 0.00 | 0.01 | 0.01 | 68 | 1010.0 |
| 20260507123946 | 68 | 220 | 4.3 | 7.8 | 0.00 | 0.01 | 0.01 | 67 | 1009.9 |
| 20260507123906 | 68 | 232 | 5.2 | 7.8 | 0.00 | 0.01 | 0.01 | 67 | 1009.9 |
| 20260507123850 | 68 | 204 | 1.7 | 7.8 | 0.00 | 0.01 | 0.01 | 67 | 1010.0 |
| 20260507123834 | 68 | 237 | 2.6 | 7.8 | 0.00 | 0.01 | 0.01 | 66 | 1010.0 |
| 20260507123812 | 69 | 215 | 1.7 | 5.2 | 0.00 | 0.01 | 0.01 | 67 | 1010.0 |
| 20260507123755 | 69 | 221 | 2.6 | 3.5 | 0.00 | 0.01 | 0.01 | 68 | 1010.0 |
| 20260507123519 | 69 | 202 | 0.9 | 1.7 | 0.00 | 0.01 | 0.01 | 69 | 1010.2 |
| 20260507123234 | 69 | 196 | 0.0 | 0.9 | 0.00 | 0.01 | 0.01 | 69 | 1010.0 |
| 20260507123218 | 69 | 201 | 0.0 | 0.9 | 0.00 | 0.01 | 0.01 | 69 | 1009.9 |
| 20260507122941 | 69 | 196 | 0.0 | 0.9 | 0.00 | 0.01 | 0.01 | 69 | 1010.2 |
| 20260507122925 | 69 | 199 | 0.0 | 0.9 | 0.00 | 0.01 | 0.01 | 68 | 1010.1 |
| 20260507122902 | 69 | 198 | 0.0 | 0.9 | 0.00 | 0.01 | 0.01 | 69 | 1010.2 |
| 20260507122627 | 69 | 210 | 0.0 | 0.0 | 0.00 | 0.01 | 0.01 | 69 | 1010.4 |
| 20260507122047 | 69 | 191 | 0.0 | 0.0 | 0.00 | 0.01 | 0.01 | 70 | 1010.1 |
| 20260507121947 | 69 | 191 | 0.0 | 0.0 | 0.00 | 0.01 | 0.01 | 70 | 1010.1 |
| 20260507121854 | 69 | 190 | 0.0 | 0.0 | 0.00 | 0.01 | 0.01 | 71 | 1010.2 |
| 20260507121838 | 69 | 191 | 0.0 | 0.0 | 0.00 | 0.01 | 0.01 | 70 | 1010.2 |
| 20260507121823 | 69 | 190 | 0.0 | 0.0 | 0.00 | 0.01 | 0.01 | 70 | 1010.2 |
| 20260507121800 | 69 | 186 | 0.0 | 0.0 | 0.00 | 0.01 | 0.01 | 71 | 1010.1 |
| 20260507121523 | 69 | 187 | 0.0 | 0.0 | 0.00 | 0.01 | 0.01 | 73 | 1010.4 |
| 20260507121508 | 69 | 188 | 0.0 | 0.9 | 0.00 | 0.01 | 0.01 | 72 | 1010.2 |
| 20260507121451 | 69 | 189 | 0.0 | 0.9 | 0.00 | 0.01 | 0.01 | 71 | 1010.2 |
| 20260507121222 | 68 | 192 | 0.0 | 0.9 | 0.00 | 0.01 | 0.01 | 72 | 1010.1 |
| 20260507120923 | 68 | 185 | 0.0 | 0.9 | 0.00 | 0.01 | 0.01 | 72 | 1010.1 |
| 20260507120907 | 67 | 185 | 0.0 | 0.9 | 0.00 | 0.01 | 0.01 | 70 | 1010.2 |
| 20260507120547 | 67 | 180 | 0.0 | 0.9 | 0.00 | 0.01 | 0.01 | 71 | 1010.1 |
| 20260507120448 | 67 | 186 | 0.0 | 0.9 | 0.00 | 0.01 | 0.01 | 71 | 1010.0 |
| 20260507120359 | 67 | 178 | 0.0 | 0.9 | 0.00 | 0.01 | 0.01 | 71 | 1010.4 |
| 20260507120343 | 67 | 151 | 0.0 | 0.0 | 0.00 | 0.01 | 0.01 | 71 | 1010.1 |
| 20260507120328 | 67 | 164 | 0.0 | 0.0 | 0.01 | 0.01 | 0.01 | 71 | 1010.1 |
| 20260507120100 | 68 | 155 | 0.0 | 0.0 | 0.01 | 0.01 | 0.01 | 72 | 1010.2 |
| 20260507115947 | 68 | 177 | 0.0 | 0.0 | 0.01 | 0.01 | 0.01 | 74 | 1010.4 |
| 20260507115847 | 68 | 181 | 0.0 | 0.0 | 0.01 | 0.01 | 0.01 | 75 | 1010.1 |
| 20260507115747 | 68 | 190 | 0.0 | 0.0 | 0.01 | 0.01 | 0.01 | 76 | 1010.5 |
| 20260507115648 | 68 | 190 | 0.0 | 0.0 | 0.01 | 0.01 | 0.01 | 75 | 1010.1 |
| 20260507115547 | 68 | 189 | 0.0 | 0.0 | 0.01 | 0.01 | 0.01 | 75 | 1010.2 |
| 20260507115448 | 68 | 189 | 0.0 | 0.0 | 0.01 | 0.01 | 0.01 | 74 | 1010.0 |
| 20260507115348 | 68 | 185 | 0.0 | 0.0 | 0.01 | 0.01 | 0.01 | 73 | 1010.4 |
| 20260507115247 | 68 | 192 | 0.0 | 0.0 | 0.01 | 0.01 | 0.01 | 74 | 1010.1 |
| 20260507115148 | 68 | 192 | 0.0 | 0.0 | 0.01 | 0.01 | 0.01 | 75 | 1010.4 |
| 20260507115048 | 68 | 189 | 0.0 | 0.0 | 0.01 | 0.01 | 0.01 | 77 | 1010.1 |
| 20260507114947 | 68 | 194 | 0.0 | 0.0 | 0.01 | 0.01 | 0.01 | 78 | 1010.5 |
| 20260507114847 | 67 | 197 | 0.0 | 0.0 | 0.01 | 0.01 | 0.01 | 79 | 1010.4 |
| 20260507114747 | 67 | 196 | 0.0 | 0.0 | 0.01 | 0.01 | 0.01 | 79 | 1010.2 |
| 20260507114648 | 67 | 187 | 0.0 | 0.0 | 0.01 | 0.01 | 0.01 | 79 | 1010.2 |
| 20260507114624 | 67 | 179 | 0.0 | 0.0 | 0.01 | 0.01 | 0.01 | 79 | 1010.0 |
| 20260507114609 | 67 | 184 | 0.0 | 0.0 | 0.01 | 0.01 | 0.01 | 80 | 1010.5 |
| 20260507114323 | 67 | 185 | 0.0 | 0.0 | 0.01 | 0.01 | 0.01 | 82 | 1010.2 |
| 20260507114307 | 67 | 186 | 0.0 | 0.0 | 0.01 | 0.01 | 0.01 | 83 | 1010.4 |
| 20260507114243 | 66 | 190 | 0.0 | 0.0 | 0.01 | 0.01 | 0.01 | 83 | 1010.5 |
| 20260507114007 | 66 | 185 | 0.0 | 0.0 | 0.01 | 0.01 | 0.01 | 83 | 1010.2 |
| 20260507113647 | 65 | 188 | 0.0 | 0.0 | 0.01 | 0.01 | 0.01 | 84 | 1010.5 |
| 20260507113548 | 65 | 191 | 0.0 | 0.0 | 0.01 | 0.01 | 0.01 | 85 | 1010.4 |
| 20260507113509 | 65 | 189 | 0.0 | 0.0 | 0.01 | 0.01 | 0.01 | 86 | 1010.2 |
| 20260507113444 | 65 | 186 | 0.0 | 0.0 | 0.01 | 0.01 | 0.01 | 87 | 1010.6 |
| 20260507113428 | 65 | 189 | 0.0 | 0.0 | 0.01 | 0.01 | 0.01 | 87 | 1010.2 |
| 20260507113200 | 64 | 191 | 0.0 | 0.0 | 0.01 | 0.01 | 0.01 | 87 | 1010.1 |
| 20260507113144 | 64 | 189 | 0.0 | 0.0 | 0.01 | 0.01 | 0.01 | 88 | 1010.6 |
| 20260507112907 | 64 | 185 | 0.0 | 0.0 | 0.01 | 0.01 | 0.01 | 87 | 1010.4 |
| 20260507112623 | 64 | 185 | 0.0 | 0.0 | 0.01 | 0.01 | 0.01 | 88 | 1010.5 |
| 20260507112608 | 63 | 185 | 0.0 | 0.0 | 0.01 | 0.01 | 0.01 | 87 | 1010.4 |
| 20260507112247 | 63 | 185 | 0.0 | 0.0 | 0.01 | 0.01 | 0.01 | 86 | 1010.4 |
| 20260507112146 | 63 | 185 | 0.0 | 0.0 | 0.01 | 0.01 | 0.01 | 87 | 1010.4 |
| 20260507112119 | 63 | 186 | 0.0 | 0.0 | 0.01 | 0.01 | 0.01 | 87 | 1010.5 |
| 20260507112103 | 63 | 185 | 0.0 | 0.9 | 0.01 | 0.01 | 0.01 | 87 | 1010.5 |
| 20260507112048 | 63 | 179 | 0.0 | 0.9 | 0.01 | 0.01 | 0.01 | 87 | 1010.6 |
| 20260507112031 | 63 | 185 | 0.0 | 0.9 | 0.01 | 0.01 | 0.01 | 87 | 1010.4 |
| 20260507112014 | 63 | 178 | 0.0 | 0.9 | 0.01 | 0.01 | 0.01 | 87 | 1010.5 |
| 20260507111951 | 63 | 182 | 0.0 | 0.9 | 0.01 | 0.01 | 0.01 | 87 | 1010.4 |
| 20260507111713 | 63 | 184 | 0.0 | 0.9 | 0.01 | 0.01 | 0.01 | 85 | 1010.4 |
| 20260507111657 | 63 | 184 | 0.0 | 0.9 | 0.01 | 0.01 | 0.01 | 85 | 1010.5 |
| 20260507111208 | 64 | 174 | 0.0 | 0.9 | 0.01 | 0.01 | 0.01 | 83 | 1010.7 |
| 20260507110847 | 65 | 189 | 0.0 | 0.9 | 0.01 | 0.01 | 0.01 | 82 | 1010.5 |
| 20260507110747 | 66 | 191 | 0.0 | 0.9 | 0.01 | 0.01 | 0.01 | 81 | 1010.4 |
| 20260507110647 | 67 | 192 | 0.0 | 0.9 | 0.01 | 0.01 | 0.01 | 80 | 1010.2 |
| 20260507110549 | 67 | 192 | 0.0 | 0.9 | 0.01 | 0.01 | 0.01 | 79 | 1010.6 |
| 20260507110524 | 68 | 191 | 0.0 | 0.9 | 0.01 | 0.01 | 0.01 | 77 | 1010.4 |
| 20260507110508 | 69 | 192 | 0.0 | 0.9 | 0.01 | 0.01 | 0.01 | 75 | 1010.5 |
| 20260507110147 | 69 | 191 | 0.0 | 0.9 | 0.00 | 0.00 | 0.01 | 70 | 1010.7 |
| 20260507110100 | 69 | 187 | 0.0 | 1.7 | 0.00 | 0.00 | 0.00 | 69 | 1010.5 |
| 20260507105947 | 69 | 194 | 0.0 | 1.7 | 0.00 | 0.00 | 0.00 | 68 | 1010.5 |
| 20260507105848 | 69 | 192 | 0.0 | 1.7 | 0.00 | 0.00 | 0.00 | 67 | 1010.1 |
| 20260507105747 | 69 | 197 | 0.0 | 1.7 | 0.00 | 0.00 | 0.00 | 67 | 1010.0 |
| 20260507105647 | 69 | 202 | 0.0 | 1.7 | 0.00 | 0.00 | 0.00 | 67 | 1010.1 |
| 20260507105547 | 69 | 192 | 0.0 | 1.7 | 0.00 | 0.00 | 0.00 | 67 | 1010.2 |
| 20260507105448 | 69 | 194 | 0.0 | 1.7 | 0.00 | 0.00 | 0.00 | 67 | 1010.2 |
| 20260507105352 | 69 | 192 | 0.0 | 0.9 | 0.00 | 0.00 | 0.00 | 66 | 1010.2 |
| 20260507105348 | 69 | 194 | 0.0 | 1.7 | 0.00 | 0.00 | 0.00 | 66 | 1010.4 |
| 20260507105332 | 69 | 198 | 0.0 | 1.7 | 0.00 | 0.00 | 0.00 | 65 | 1010.4 |
| 20260507105316 | 69 | 212 | 1.7 | 1.7 | 0.00 | 0.00 | 0.00 | 65 | 1010.4 |
| 20260507105258 | 69 | 192 | 0.0 | 0.9 | 0.00 | 0.00 | 0.00 | 66 | 1010.2 |
| 20260507104947 | 69 | 200 | 0.0 | 0.9 | 0.00 | 0.00 | 0.00 | 67 | 1010.0 |
| 20260507104849 | 69 | 198 | 0.0 | 0.9 | 0.00 | 0.00 | 0.00 | 67 | 1010.1 |
| 20260507104833 | 69 | 194 | 0.0 | 0.9 | 0.00 | 0.00 | 0.00 | 69 | 1010.0 |
| 20260507104817 | 68 | 190 | 0.0 | 0.9 | 0.00 | 0.00 | 0.00 | 70 | 1010.1 |
| 20260507104549 | 68 | 198 | 0.0 | 1.7 | 0.00 | 0.00 | 0.00 | 71 | 1010.0 |
| 20260507104448 | 67 | 192 | 0.0 | 1.7 | 0.00 | 0.00 | 0.00 | 70 | 1010.1 |
| 20260507104423 | 67 | 276 | 0.0 | 1.7 | 0.00 | 0.00 | 0.00 | 71 | 1010.1 |
| 20260507104407 | 67 | 268 | 0.0 | 2.6 | 0.00 | 0.00 | 0.00 | 71 | 1010.2 |
| 20260507104352 | 67 | 193 | 0.0 | 3.5 | 0.00 | 0.00 | 0.00 | 71 | 1010.1 |
| 20260507104123 | 66 | 194 | 0.0 | 3.5 | 0.00 | 0.00 | 0.00 | 71 | 1010.0 |
| 20260507104107 | 66 | 178 | 0.0 | 3.5 | 0.00 | 0.00 | 0.00 | 71 | 1010.1 |
| 20260507103748 | 67 | 191 | 0.0 | 3.5 | 0.00 | 0.00 | 0.00 | 71 | 1010.4 |
| 20260507103731 | 67 | 191 | 0.0 | 3.5 | 0.00 | 0.00 | 0.00 | 71 | 1010.1 |
| 20260507103709 | 67 | 196 | 0.0 | 3.5 | 0.00 | 0.00 | 0.00 | 70 | 1010.1 |
| 20260507103351 | 66 | 193 | 0.9 | 2.6 | 0.00 | 0.00 | 0.00 | 71 | 1010.0 |
| 20260507103346 | 67 | 199 | 0.9 | 3.5 | 0.00 | 0.00 | 0.00 | 71 | 1010.0 |
| 20260507103331 | 67 | 211 | 0.9 | 2.6 | 0.00 | 0.00 | 0.00 | 71 | 1010.2 |
| 20260507103315 | 67 | 185 | 0.0 | 2.6 | 0.00 | 0.00 | 0.00 | 72 | 1010.1 |
| 20260507103257 | 66 | 193 | 0.9 | 2.6 | 0.00 | 0.00 | 0.00 | 71 | 1010.0 |
| 20260507102947 | 66 | 207 | 0.0 | 1.7 | 0.00 | 0.00 | 0.00 | 71 | 1010.0 |
| 20260507102846 | 66 | 168 | 0.0 | 1.7 | 0.00 | 0.00 | 0.00 | 71 | 1010.0 |
| 20260507102748 | 66 | 144 | 0.0 | 1.7 | 0.00 | 0.00 | 0.00 | 71 | 1009.8 |
| 20260507102647 | 67 | 137 | 0.9 | 1.7 | 0.00 | 0.00 | 0.00 | 72 | 1010.2 |
| 20260507102547 | 67 | 164 | 0.0 | 0.0 | 0.00 | 0.00 | 0.00 | 73 | 1009.9 |
| 20260507102447 | 67 | 183 | 0.0 | 0.0 | 0.00 | 0.00 | 0.00 | 72 | 1010.1 |
| 20260507102348 | 67 | 187 | 0.0 | 0.0 | 0.00 | 0.00 | 0.00 | 71 | 1010.4 |
| 20260507102246 | 67 | 186 | 0.0 | 0.0 | 0.00 | 0.00 | 0.00 | 71 | 1010.1 |
| 20260507102147 | 67 | 180 | 0.0 | 0.0 | 0.00 | 0.00 | 0.00 | 71 | 1010.1 |
| 20260507102047 | 67 | 182 | 0.0 | 0.0 | 0.00 | 0.00 | 0.00 | 71 | 1010.4 |
| 20260507101949 | 67 | 191 | 0.0 | 0.0 | 0.00 | 0.00 | 0.00 | 72 | 1010.0 |
| 20260507101848 | 67 | 174 | 0.0 | 0.0 | 0.00 | 0.00 | 0.00 | 73 | 1010.2 |
| 20260507101747 | 67 | 188 | 0.0 | 0.0 | 0.00 | 0.00 | 0.00 | 74 | 1010.1 |
| 20260507101725 | 67 | 179 | 0.0 | 0.0 | 0.00 | 0.00 | 0.00 | 73 | 1010.2 |
| 20260507101720 | 68 | 175 | 0.0 | 0.9 | 0.00 | 0.00 | 0.00 | 71 | 1010.4 |
| 20260507101713 | 67 | 190 | 0.0 | 0.0 | 0.00 | 0.00 | 0.00 | 74 | 1010.5 |
| 20260507101650 | 67 | 190 | 0.0 | 0.0 | 0.00 | 0.00 | 0.00 | 73 | 1010.4 |
| 20260507101635 | 67 | 189 | 0.0 | 0.0 | 0.00 | 0.00 | 0.00 | 73 | 1010.0 |
| 20260507101619 | 67 | 186 | 0.0 | 0.0 | 0.00 | 0.00 | 0.00 | 73 | 1010.1 |
| 20260507101603 | 67 | 183 | 0.0 | 0.0 | 0.00 | 0.00 | 0.00 | 74 | 1010.4 |
| 20260507101322 | 67 | 179 | 0.0 | 0.0 | 0.00 | 0.00 | 0.00 | 73 | 1010.2 |
| 20260507101057 | 67 | 145 | 0.0 | 0.0 | 0.00 | 0.00 | 0.00 | 73 | 1010.1 |
| 20260507101042 | 67 | 160 | 0.0 | 0.9 | 0.00 | 0.00 | 0.00 | 73 | 1010.4 |
| 20260507101026 | 67 | 173 | 0.0 | 0.9 | 0.00 | 0.00 | 0.00 | 74 | 1010.1 |
| 20260507101011 | 68 | 178 | 0.0 | 0.9 | 0.00 | 0.00 | 0.00 | 73 | 1010.2 |
| 20260507100744 | 68 | 160 | 0.0 | 0.9 | 0.00 | 0.00 | 0.00 | 72 | 1010.1 |
| 20260507100729 | 67 | 191 | 0.0 | 0.9 | 0.00 | 0.00 | 0.00 | 72 | 1010.2 |
| 20260507100452 | 68 | 187 | 0.0 | 0.9 | 0.00 | 0.00 | 0.00 | 71 | 1010.2 |
| 20260507100436 | 68 | 185 | 0.0 | 0.9 | 0.00 | 0.00 | 0.00 | 71 | 1010.2 |
| 20260507100416 | 68 | 175 | 0.0 | 0.9 | 0.00 | 0.00 | 0.00 | 71 | 1010.4 |
| 20260507095847 | 68 | 195 | 0.0 | 1.7 | 0.00 | 0.00 | 0.00 | 70 | 1010.4 |
| 20260507095748 | 68 | 180 | 0.0 | 2.6 | 0.00 | 0.00 | 0.00 | 70 | 1010.2 |
| 20260507095647 | 68 | 188 | 0.0 | 2.6 | 0.00 | 0.00 | 0.00 | 71 | 1010.1 |
| 20260507095549 | 68 | 180 | 0.0 | 2.6 | 0.00 | 0.00 | 0.00 | 71 | 1010.2 |
| 20260507095523 | 68 | 190 | 0.0 | 2.6 | 0.00 | 0.00 | 0.00 | 70 | 1009.9 |
| 20260507095507 | 68 | 180 | 0.0 | 2.6 | 0.00 | 0.00 | 0.00 | 70 | 1010.1 |
| 20260507095146 | 68 | 193 | 0.0 | 2.6 | 0.00 | 0.00 | 0.00 | 71 | 1010.0 |
| 20260507095059 | 68 | 237 | 0.0 | 2.6 | 0.00 | 0.00 | 0.00 | 72 | 1009.9 |
| 20260507095023 | 68 | 195 | 0.0 | 2.6 | 0.00 | 0.00 | 0.00 | 72 | 1010.1 |
| 20260507095007 | 67 | 192 | 0.0 | 0.9 | 0.00 | 0.00 | 0.00 | 73 | 1010.1 |
| 20260507094952 | 68 | 196 | 0.0 | 0.9 | 0.00 | 0.00 | 0.00 | 72 | 1010.4 |
| 20260507094710 | 68 | 189 | 0.0 | 0.9 | 0.00 | 0.00 | 0.00 | 72 | 1010.1 |
| 20260507094434 | 68 | 184 | 0.0 | 0.9 | 0.00 | 0.00 | 0.00 | 72 | 1010.1 |
| 20260507094418 | 68 | 188 | 0.0 | 0.9 | 0.00 | 0.00 | 0.00 | 72 | 1010.4 |
| 20260507094153 | 68 | 194 | 0.0 | 0.9 | 0.00 | 0.00 | 0.00 | 72 | 1010.1 |
| 20260507094128 | 67 | 188 | 0.0 | 0.9 | 0.00 | 0.00 | 0.00 | 72 | 1010.2 |
| 20260507094111 | 67 | 191 | 0.0 | 5.2 | 0.00 | 0.00 | 0.00 | 73 | 1010.0 |
| 20260507093847 | 67 | 190 | 0.0 | 8.7 | 0.00 | 0.00 | 0.00 | 73 | 1010.1 |
| 20260507093831 | 67 | 180 | 0.0 | 8.7 | 0.00 | 0.00 | 0.00 | 74 | 1010.0 |
| 20260507093815 | 68 | 84 | 0.0 | 8.7 | 0.00 | 0.00 | 0.00 | 72 | 1010.2 |
| 20260507093758 | 68 | 188 | 0.0 | 8.7 | 0.00 | 0.00 | 0.00 | 73 | 1009.9 |
| 20260507093525 | 68 | 186 | 0.0 | 8.7 | 0.00 | 0.00 | 0.00 | 73 | 1010.1 |
| 20260507093508 | 68 | 165 | 0.0 | 8.7 | 0.00 | 0.00 | 0.00 | 72 | 1010.2 |
| 20260507093452 | 68 | 152 | 0.0 | 8.7 | 0.00 | 0.00 | 0.00 | 70 | 1010.0 |
| 20260507093437 | 68 | 205 | 0.0 | 8.7 | 0.00 | 0.00 | 0.00 | 69 | 1010.0 |
| 20260507093207 | 69 | 186 | 0.0 | 8.7 | 0.00 | 0.00 | 0.00 | 69 | 1010.1 |
| 20260507092847 | 69 | 275 | 0.0 | 5.2 | 0.00 | 0.00 | 0.00 | 68 | 1010.0 |
| 20260507092748 | 70 | 137 | 1.7 | 5.2 | 0.00 | 0.00 | 0.00 | 68 | 1010.0 |
| 20260507092729 | 70 | 207 | 0.0 | 2.6 | 0.00 | 0.00 | 0.00 | 67 | 1010.1 |
| 20260507092707 | 70 | 224 | 0.0 | 2.6 | 0.00 | 0.00 | 0.00 | 67 | 1010.0 |
| 20260507092347 | 70 | 188 | 0.0 | 2.6 | 0.00 | 0.00 | 0.00 | 68 | 1010.0 |
| 20260507092258 | 69 | 192 | 0.0 | 1.7 | 0.00 | 0.00 | 0.00 | 69 | 1009.8 |
| 20260507092253 | 69 | 213 | 0.0 | 2.6 | 0.00 | 0.00 | 0.00 | 67 | 1010.0 |
| 20260507092237 | 69 | 192 | 0.0 | 2.6 | 0.00 | 0.00 | 0.00 | 69 | 1010.0 |
| 20260507092213 | 69 | 191 | 0.0 | 2.6 | 0.00 | 0.00 | 0.00 | 69 | 1010.0 |
| 20260507092157 | 69 | 226 | 0.9 | 2.6 | 0.00 | 0.00 | 0.00 | 70 | 1009.9 |
| 20260507092142 | 69 | 205 | 0.0 | 1.7 | 0.00 | 0.00 | 0.00 | 70 | 1010.1 |
| 20260507092125 | 69 | 191 | 0.0 | 1.7 | 0.00 | 0.00 | 0.00 | 70 | 1009.6 |
| 20260507091847 | 69 | 192 | 0.0 | 1.7 | 0.00 | 0.00 | 0.00 | 69 | 1009.8 |
| 20260507091608 | 69 | 196 | 0.0 | 1.7 | 0.00 | 0.00 | 0.00 | 69 | 1009.7 |
| 20260507091248 | 68 | 283 | 0.0 | 1.7 | 0.00 | 0.00 | 0.00 | 70 | 1009.7 |
| 20260507091147 | 68 | 193 | 0.0 | 1.7 | 0.00 | 0.00 | 0.00 | 70 | 1009.5 |
| 20260507091047 | 68 | 203 | 0.9 | 1.7 | 0.00 | 0.00 | 0.00 | 70 | 1009.8 |
| 20260507090947 | 68 | 189 | 0.0 | 0.9 | 0.00 | 0.00 | 0.00 | 71 | 1009.8 |
| 20260507090846 | 68 | 180 | 0.0 | 0.9 | 0.00 | 0.00 | 0.00 | 73 | 1009.8 |
| 20260507090747 | 67 | 191 | 0.0 | 0.9 | 0.00 | 0.00 | 0.00 | 74 | 1009.6 |
| 20260507090647 | 68 | 182 | 0.0 | 0.9 | 0.00 | 0.00 | 0.00 | 74 | 1009.9 |
| 20260507090547 | 68 | 171 | 0.0 | 1.7 | 0.00 | 0.00 | 0.00 | 73 | 1009.8 |
| 20260507090447 | 68 | 113 | 0.0 | 1.7 | 0.00 | 0.00 | 0.00 | 72 | 1009.6 |
| 20260507090349 | 68 | 185 | 0.0 | 1.7 | 0.00 | 0.00 | 0.00 | 73 | 1009.6 |
| 20260507090246 | 68 | 190 | 0.0 | 1.7 | 0.00 | 0.00 | 0.00 | 73 | 1009.8 |
| 20260507090147 | 67 | 189 | 0.0 | 1.7 | 0.00 | 0.00 | 0.00 | 73 | 1009.5 |
| 20260507090101 | 67 | 191 | 0.0 | 1.7 | 0.00 | 0.00 | 0.00 | 73 | 1009.5 |
| 20260507085947 | 67 | 173 | 0.0 | 1.7 | 0.00 | 0.00 | 0.00 | 74 | 1009.5 |
| 20260507085922 | 67 | 192 | 0.0 | 1.7 | 0.00 | 0.00 | 0.00 | 74 | 1009.5 |
| 20260507085907 | 68 | 184 | 0.0 | 1.7 | 0.00 | 0.00 | 0.00 | 74 | 1009.7 |
| 20260507085619 | 68 | 196 | 0.0 | 0.9 | 0.00 | 0.00 | 0.00 | 74 | 1009.5 |
| 20260507085603 | 68 | 209 | 0.9 | 0.9 | 0.00 | 0.00 | 0.00 | 73 | 1009.7 |
| 20260507085548 | 68 | 191 | 0.0 | 0.0 | 0.00 | 0.00 | 0.00 | 74 | 1009.3 |
| 20260507085533 | 68 | 190 | 0.0 | 0.0 | 0.00 | 0.00 | 0.00 | 75 | 1009.5 |
| 20260507085045 | 68 | 192 | 0.0 | 0.0 | 0.00 | 0.00 | 0.00 | 75 | 1009.4 |
| 20260507084713 | 69 | 192 | 0.0 | 3.5 | 0.00 | 0.00 | 0.00 | 72 | 1009.4 |
| 20260507084612 | 68 | 189 | 0.0 | 3.5 | 0.00 | 0.00 | 0.00 | 72 | 1009.4 |
| 20260507084514 | 68 | 188 | 0.0 | 3.5 | 0.00 | 0.00 | 0.00 | 73 | 1009.3 |
| 20260507084414 | 67 | 189 | 0.0 | 3.5 | 0.00 | 0.00 | 0.00 | 73 | 1009.3 |
| 20260507084313 | 67 | 219 | 0.9 | 3.5 | 0.00 | 0.00 | 0.00 | 74 | 1009.4 |
| 20260507084213 | 67 | 197 | 0.0 | 3.5 | 0.00 | 0.00 | 0.00 | 73 | 1009.5 |
| 20260507084116 | 67 | 191 | 0.0 | 3.5 | 0.00 | 0.00 | 0.00 | 73 | 1009.5 |
| 20260507084106 | 67 | 102 | 0.0 | 2.6 | 0.00 | 0.00 | 0.00 | 73 | 1009.5 |
| 20260507084057 | 67 | 206 | 0.0 | 3.5 | 0.00 | 0.00 | 0.00 | 74 | 1009.6 |
| 20260507084041 | 67 | 175 | 0.0 | 3.5 | 0.00 | 0.00 | 0.00 | 74 | 1009.6 |
| 20260507084023 | 67 | 102 | 0.0 | 2.6 | 0.00 | 0.00 | 0.00 | 73 | 1009.5 |
| 20260507083714 | 67 | 191 | 0.0 | 2.6 | 0.00 | 0.00 | 0.00 | 74 | 1009.6 |
| 20260507083613 | 67 | 139 | 0.0 | 2.6 | 0.00 | 0.00 | 0.00 | 75 | 1009.6 |
| 20260507083558 | 67 | 199 | 0.0 | 2.6 | 0.00 | 0.00 | 0.00 | 75 | 1009.5 |
| 20260507083543 | 66 | 184 | 0.0 | 2.6 | 0.00 | 0.00 | 0.00 | 75 | 1009.3 |
| 20260507083314 | 66 | 196 | 0.9 | 2.6 | 0.00 | 0.00 | 0.00 | 76 | 1009.5 |
| 20260507083215 | 66 | 198 | 0.0 | 1.7 | 0.00 | 0.00 | 0.00 | 76 | 1009.4 |
| 20260507083113 | 66 | 183 | 0.0 | 1.7 | 0.00 | 0.00 | 0.00 | 76 | 1009.4 |
| 20260507083055 | 66 | 150 | 0.0 | 0.9 | 0.00 | 0.00 | 0.00 | 76 | 1009.0 |
| 20260507083040 | 66 | 190 | 0.0 | 0.9 | 0.00 | 0.00 | 0.00 | 76 | 1009.5 |
| 20260507082814 | 65 | 204 | 0.0 | 0.9 | 0.00 | 0.00 | 0.00 | 77 | 1009.5 |
| 20260507082713 | 65 | 196 | 0.0 | 0.9 | 0.00 | 0.00 | 0.00 | 77 | 1009.3 |
| 20260507082651 | 65 | 204 | 0.0 | 0.9 | 0.00 | 0.00 | 0.00 | 78 | 1009.3 |
| 20260507082635 | 65 | 182 | 0.0 | 0.9 | 0.00 | 0.00 | 0.00 | 78 | 1009.4 |
| 20260507082313 | 65 | 185 | 0.0 | 0.9 | 0.00 | 0.00 | 0.00 | 78 | 1009.4 |
| 20260507082213 | 65 | 141 | 0.0 | 0.9 | 0.00 | 0.00 | 0.00 | 78 | 1009.5 |
| 20260507082153 | 65 | 180 | 0.0 | 0.9 | 0.00 | 0.00 | 0.00 | 77 | 1009.5 |
| 20260507082136 | 65 | 181 | 0.0 | 0.9 | 0.00 | 0.00 | 0.00 | 77 | 1009.4 |
| 20260507081905 | 65 | 168 | 0.0 | 0.9 | 0.00 | 0.00 | 0.00 | 77 | 1009.4 |
| 20260507081849 | 65 | 189 | 0.0 | 0.9 | 0.00 | 0.00 | 0.00 | 77 | 1009.2 |
| 20260507081834 | 65 | 181 | 0.0 | 0.9 | 0.00 | 0.00 | 0.00 | 77 | 1009.3 |
| 20260507081557 | 65 | 181 | 0.0 | 0.9 | 0.00 | 0.00 | 0.00 | 78 | 1009.3 |
| 20260507081542 | 65 | 117 | 0.0 | 0.9 | 0.00 | 0.00 | 0.00 | 77 | 1009.2 |
| 20260507081523 | 65 | 168 | 0.0 | 0.9 | 0.00 | 0.00 | 0.00 | 77 | 1009.4 |
| 20260507081213 | 65 | 189 | 0.0 | 0.9 | 0.00 | 0.00 | 0.00 | 78 | 1009.4 |
| 20260507081134 | 64 | 176 | 0.0 | 7.0 | 0.00 | 0.00 | 0.00 | 79 | 1009.4 |
| 20260507081127 | 65 | 192 | 0.0 | 2.6 | 0.00 | 0.00 | 0.00 | 78 | 1009.2 |
| 20260507081112 | 65 | 186 | 0.0 | 2.6 | 0.00 | 0.00 | 0.00 | 78 | 1009.1 |
| 20260507081056 | 65 | 119 | 0.0 | 2.6 | 0.00 | 0.00 | 0.00 | 78 | 1009.2 |
| 20260507081034 | 65 | 139 | 0.9 | 2.6 | 0.00 | 0.00 | 0.00 | 78 | 1009.0 |
| 20260507081017 | 65 | 147 | 0.0 | 2.6 | 0.00 | 0.00 | 0.00 | 78 | 1009.0 |
| 20260507081002 | 65 | 186 | 0.0 | 2.6 | 0.00 | 0.00 | 0.00 | 78 | 1009.3 |
| 20260507080947 | 64 | 229 | 0.0 | 2.6 | 0.00 | 0.00 | 0.00 | 78 | 1009.1 |
| 20260507080931 | 64 | 182 | 0.0 | 2.6 | 0.00 | 0.00 | 0.00 | 78 | 1009.3 |
| 20260507080701 | 64 | 178 | 0.0 | 2.6 | 0.00 | 0.00 | 0.00 | 79 | 1009.3 |
| 20260507080646 | 64 | 25 | 0.9 | 2.6 | 0.00 | 0.00 | 0.00 | 78 | 1009.2 |
| 20260507080630 | 64 | 196 | 0.0 | 1.7 | 0.00 | 0.00 | 0.00 | 79 | 1009.3 |
| 20260507080355 | 64 | 189 | 0.0 | 1.7 | 0.00 | 0.00 | 0.00 | 79 | 1009.1 |
| 20260507080338 | 64 | 176 | 0.0 | 7.0 | 0.00 | 0.00 | 0.00 | 79 | 1009.4 |
| 20260507075632 | 64 | 176 | 0.0 | 7.0 | 0.00 | 0.00 | 0.00 | 79 | 1009.1 |
| 20260507075347 | 65 | 206 | 0.0 | 7.0 | 0.00 | 0.00 | 0.00 | 78 | 1009.0 |
| 20260507075332 | 65 | 191 | 0.0 | 7.0 | 0.00 | 0.00 | 0.00 | 77 | 1009.0 |
| 20260507075317 | 65 | 182 | 0.0 | 7.0 | 0.00 | 0.00 | 0.00 | 77 | 1009.2 |
| 20260507075300 | 65 | 99 | 0.0 | 7.0 | 0.00 | 0.00 | 0.00 | 77 | 1009.2 |
| 20260507074813 | 65 | 187 | 0.0 | 8.7 | 0.00 | 0.00 | 0.00 | 77 | 1009.1 |
| 20260507074714 | 65 | 204 | 0.0 | 8.7 | 0.00 | 0.00 | 0.00 | 77 | 1009.1 |
| 20260507074649 | 65 | 223 | 0.9 | 8.7 | 0.00 | 0.00 | 0.00 | 77 | 1009.0 |
| 20260507074634 | 65 | 161 | 0.9 | 8.7 | 0.00 | 0.00 | 0.00 | 78 | 1009.0 |
| 20260507074618 | 65 | 187 | 0.0 | 8.7 | 0.00 | 0.00 | 0.00 | 78 | 1008.8 |
| 20260507074554 | 65 | 183 | 0.0 | 8.7 | 0.00 | 0.00 | 0.00 | 78 | 1008.9 |
| 20260507074013 | 65 | 201 | 2.6 | 8.7 | 0.00 | 0.00 | 0.00 | 77 | 1008.6 |
| 20260507073912 | 65 | 196 | 0.0 | 1.7 | 0.00 | 0.00 | 0.00 | 78 | 1008.8 |
| 20260507073813 | 65 | 171 | 0.0 | 1.7 | 0.00 | 0.00 | 0.00 | 78 | 1008.8 |
| 20260507073713 | 65 | 182 | 0.0 | 1.7 | 0.00 | 0.00 | 0.00 | 78 | 1008.7 |
| 20260507073613 | 64 | 183 | 0.0 | 2.6 | 0.00 | 0.00 | 0.00 | 78 | 1008.8 |
| 20260507073558 | 64 | 180 | 0.0 | 2.6 | 0.00 | 0.00 | 0.00 | 78 | 1008.7 |
| 20260507073542 | 64 | 189 | 0.0 | 2.6 | 0.00 | 0.00 | 0.00 | 78 | 1008.9 |
| 20260507073313 | 64 | 174 | 0.0 | 3.5 | 0.00 | 0.00 | 0.00 | 79 | 1008.9 |
| 20260507073249 | 64 | 278 | 0.0 | 7.8 | 0.00 | 0.00 | 0.00 | 79 | 1008.6 |
| 20260507073241 | 64 | 179 | 0.0 | 3.5 | 0.00 | 0.00 | 0.00 | 79 | 1008.6 |
| 20260507073226 | 64 | 162 | 0.0 | 3.5 | 0.00 | 0.00 | 0.00 | 78 | 1008.6 |
| 20260507073211 | 64 | 145 | 0.0 | 5.2 | 0.00 | 0.00 | 0.00 | 79 | 1008.6 |
| 20260507072928 | 64 | 188 | 0.0 | 5.2 | 0.00 | 0.00 | 0.00 | 79 | 1008.7 |
| 20260507072911 | 64 | 182 | 0.0 | 5.2 | 0.00 | 0.00 | 0.00 | 79 | 1008.6 |
| 20260507072855 | 64 | 185 | 0.0 | 5.2 | 0.00 | 0.00 | 0.00 | 80 | 1008.7 |
| 20260507072839 | 64 | 190 | 0.0 | 5.2 | 0.00 | 0.00 | 0.00 | 79 | 1008.7 |
| 20260507072823 | 64 | 167 | 0.9 | 7.8 | 0.00 | 0.00 | 0.00 | 79 | 1008.6 |
| 20260507072555 | 64 | 204 | 0.9 | 7.8 | 0.00 | 0.00 | 0.00 | 79 | 1008.7 |
| 20260507072538 | 64 | 191 | 0.0 | 7.8 | 0.00 | 0.00 | 0.00 | 79 | 1008.7 |
| 20260507072523 | 64 | 207 | 1.7 | 7.8 | 0.00 | 0.00 | 0.00 | 79 | 1008.8 |
| 20260507072025 | 64 | 278 | 0.0 | 7.8 | 0.00 | 0.00 | 0.00 | 79 | 1008.6 |
| 20260507071714 | 64 | 188 | 0.0 | 7.8 | 0.00 | 0.00 | 0.00 | 80 | 1008.7 |
| 20260507071614 | 64 | 194 | 0.0 | 7.8 | 0.00 | 0.00 | 0.00 | 80 | 1008.5 |
| 20260507071513 | 64 | 200 | 2.6 | 7.8 | 0.00 | 0.00 | 0.00 | 79 | 1008.6 |
| 20260507071414 | 64 | 172 | 0.0 | 3.5 | 0.00 | 0.00 | 0.00 | 79 | 1008.4 |
| 20260507071350 | 64 | 181 | 0.0 | 3.5 | 0.00 | 0.00 | 0.00 | 79 | 1008.7 |
| 20260507071333 | 64 | 152 | 0.0 | 3.5 | 0.00 | 0.00 | 0.00 | 79 | 1008.5 |
| 20260507071024 | 63 | 133 | 0.0 | 7.0 | 0.00 | 0.00 | 0.00 | 80 | 1008.4 |
| 20260507071020 | 63 | 201 | 0.0 | 8.7 | 0.00 | 0.00 | 0.00 | 80 | 1008.3 |
| 20260507071013 | 64 | 245 | 3.5 | 3.5 | 0.00 | 0.00 | 0.00 | 79 | 1008.5 |
| 20260507070958 | 64 | 189 | 0.0 | 2.6 | 0.00 | 0.00 | 0.00 | 80 | 1008.7 |
| 20260507070935 | 64 | 178 | 0.0 | 2.6 | 0.00 | 0.00 | 0.00 | 79 | 1008.6 |
| 20260507070918 | 64 | 187 | 0.0 | 2.6 | 0.00 | 0.00 | 0.00 | 80 | 1008.5 |
| 20260507070643 | 64 | 196 | 0.0 | 7.0 | 0.00 | 0.00 | 0.00 | 80 | 1008.6 |
| 20260507070626 | 64 | 187 | 0.0 | 7.0 | 0.00 | 0.00 | 0.00 | 80 | 1008.7 |
| 20260507070606 | 63 | 133 | 0.0 | 7.0 | 0.00 | 0.00 | 0.00 | 80 | 1008.4 |
| 20260507070340 | 63 | 209 | 0.9 | 7.0 | 0.00 | 0.00 | 0.00 | 80 | 1008.6 |
| 20260507070103 | 63 | 182 | 0.0 | 7.0 | 0.00 | 0.00 | 0.00 | 80 | 1008.4 |
| 20260507070047 | 63 | 181 | 0.0 | 8.7 | 0.00 | 0.00 | 0.00 | 81 | 1008.5 |
| 20260507070030 | 63 | 201 | 0.0 | 8.7 | 0.00 | 0.00 | 0.00 | 80 | 1008.3 |
| 20260507065804 | 63 | 200 | 1.7 | 8.7 | 0.00 | 0.00 | 0.00 | 80 | 1008.4 |
| 20260507065747 | 63 | 161 | 0.9 | 8.7 | 0.00 | 0.00 | 0.00 | 80 | 1008.5 |
| 20260507065731 | 63 | 194 | 0.0 | 8.7 | 0.00 | 0.00 | 0.00 | 80 | 1008.4 |
| 20260507065446 | 63 | 209 | 0.9 | 8.7 | 0.00 | 0.00 | 0.00 | 80 | 1008.5 |
| 20260507065211 | 63 | 223 | 0.0 | 8.7 | 0.00 | 0.00 | 0.00 | 80 | 1008.2 |
| 20260507065155 | 63 | 183 | 0.0 | 12.2 | 0.00 | 0.00 | 0.00 | 80 | 1008.3 |
| 20260507065139 | 63 | 232 | 3.5 | 12.2 | 0.00 | 0.00 | 0.00 | 79 | 1008.2 |
| 20260507065116 | 63 | 233 | 0.0 | 12.2 | 0.00 | 0.00 | 0.00 | 79 | 1008.3 |
| 20260507065101 | 63 | 187 | 0.0 | 12.2 | 0.00 | 0.00 | 0.00 | 80 | 1008.5 |
| 20260507064825 | 63 | 229 | 4.3 | 12.2 | 0.00 | 0.00 | 0.00 | 80 | 1008.2 |
| 20260507064809 | 62 | 157 | 0.9 | 12.2 | 0.00 | 0.00 | 0.00 | 80 | 1008.4 |
| 20260507064745 | 62 | 175 | 0.9 | 12.2 | 0.00 | 0.00 | 0.00 | 80 | 1008.3 |
| 20260507064250 | 62 | 251 | 1.7 | 6.1 | 0.00 | 0.00 | 0.00 | 81 | 1008.2 |
| 20260507064008 | 62 | 264 | 1.7 | 14.8 | 0.00 | 0.00 | 0.00 | 81 | 1008.4 |
| 20260507063733 | 62 | 239 | 1.7 | 14.8 | 0.00 | 0.00 | 0.00 | 82 | 1008.4 |
| 20260507063413 | 62 | 201 | 2.6 | 14.8 | 0.00 | 0.00 | 0.00 | 82 | 1008.2 |
| 20260507063313 | 62 | 180 | 0.0 | 14.8 | 0.00 | 0.00 | 0.00 | 82 | 1008.3 |
| 20260507063213 | 61 | 242 | 3.5 | 14.8 | 0.00 | 0.00 | 0.00 | 82 | 1008.4 |
| 20260507063113 | 61 | 233 | 2.6 | 14.8 | 0.00 | 0.00 | 0.00 | 82 | 1008.1 |
| 20260507063012 | 62 | 224 | 3.5 | 14.8 | 0.00 | 0.00 | 0.00 | 82 | 1008.1 |
| 20260507062914 | 62 | 228 | 5.2 | 11.3 | 0.00 | 0.00 | 0.00 | 81 | 1008.2 |
| 20260507062813 | 62 | 220 | 3.5 | 11.3 | 0.00 | 0.00 | 0.00 | 82 | 1008.3 |
| 20260507062713 | 62 | 224 | 0.9 | 11.3 | 0.00 | 0.00 | 0.00 | 81 | 1008.2 |
| 20260507062613 | 62 | 200 | 0.0 | 11.3 | 0.00 | 0.00 | 0.00 | 82 | 1008.2 |
| 20260507062513 | 62 | 186 | 0.0 | 11.3 | 0.00 | 0.00 | 0.00 | 82 | 1008.4 |
| 20260507062414 | 62 | 213 | 0.0 | 11.3 | 0.00 | 0.00 | 0.00 | 81 | 1008.4 |
| 20260507062313 | 62 | 242 | 3.5 | 11.3 | 0.00 | 0.00 | 0.00 | 81 | 1008.3 |
| 20260507062213 | 62 | 205 | 0.0 | 11.3 | 0.00 | 0.00 | 0.00 | 81 | 1008.3 |
| 20260507062113 | 62 | 258 | 7.8 | 11.3 | 0.00 | 0.00 | 0.00 | 81 | 1008.1 |
| 20260507062013 | 62 | 229 | 4.3 | 13.0 | 0.00 | 0.00 | 0.00 | 81 | 1008.3 |
| 20260507061913 | 62 | 208 | 3.5 | 13.0 | 0.00 | 0.00 | 0.00 | 81 | 1008.2 |
| 20260507061813 | 62 | 216 | 0.0 | 13.0 | 0.00 | 0.00 | 0.00 | 81 | 1008.1 |
| 20260507061713 | 62 | 216 | 0.9 | 13.0 | 0.00 | 0.00 | 0.00 | 81 | 1008.2 |
| 20260507061619 | 62 | 191 | 0.0 | 13.0 | 0.00 | 0.00 | 0.00 | 81 | 1008.2 |
| 20260507061614 | 62 | 231 | 0.0 | 13.0 | 0.00 | 0.00 | 0.00 | 81 | 1008.0 |
| 20260507061558 | 62 | 324 | 0.9 | 13.0 | 0.00 | 0.00 | 0.00 | 81 | 1008.4 |
| 20260507061542 | 62 | 235 | 0.9 | 13.0 | 0.00 | 0.00 | 0.00 | 81 | 1008.1 |
| 20260507061523 | 62 | 191 | 0.0 | 13.0 | 0.00 | 0.00 | 0.00 | 81 | 1008.2 |
| 20260507061214 | 62 | 237 | 1.7 | 13.0 | 0.00 | 0.00 | 0.00 | 80 | 1007.8 |
| 20260507061112 | 62 | 203 | 7.0 | 13.0 | 0.00 | 0.00 | 0.00 | 80 | 1007.8 |
| 20260507061014 | 62 | 330 | 1.7 | 8.7 | 0.00 | 0.00 | 0.00 | 81 | 1008.2 |
| 20260507060913 | 62 | 218 | 1.7 | 8.7 | 0.00 | 0.00 | 0.00 | 81 | 1008.2 |
| 20260507060813 | 62 | 180 | 0.0 | 8.7 | 0.00 | 0.00 | 0.00 | 81 | 1008.3 |
| 20260507060713 | 62 | 199 | 0.9 | 8.7 | 0.00 | 0.00 | 0.00 | 82 | 1008.1 |
| 20260507060612 | 62 | 190 | 0.0 | 8.7 | 0.00 | 0.00 | 0.00 | 82 | 1008.1 |
| 20260507060557 | 61 | 196 | 0.0 | 8.7 | 0.00 | 0.00 | 0.00 | 82 | 1007.8 |
| 20260507060541 | 61 | 249 | 3.5 | 8.7 | 0.00 | 0.00 | 0.00 | 82 | 1008.0 |
| 20260507060313 | 61 | 224 | 0.0 | 8.7 | 0.00 | 0.00 | 0.00 | 83 | 1008.0 |
| 20260507060215 | 61 | 255 | 0.9 | 8.7 | 0.00 | 0.00 | 0.00 | 82 | 1008.0 |
| 20260507060112 | 61 | 221 | 3.5 | 8.7 | 0.00 | 0.00 | 0.00 | 83 | 1008.0 |
| 20260507060012 | 61 | 80 | 0.9 | 8.7 | 0.00 | 0.00 | 0.00 | 83 | 1007.9 |
| 20260507055913 | 61 | 220 | 2.6 | 8.7 | 0.00 | 0.00 | 0.00 | 83 | 1008.1 |
| 20260507055813 | 61 | 204 | 3.5 | 8.7 | 0.00 | 0.00 | 0.00 | 83 | 1007.9 |
| 20260507055714 | 61 | 198 | 0.0 | 8.7 | 0.00 | 0.00 | 0.00 | 83 | 1008.1 |
| 20260507055613 | 60 | 236 | 3.5 | 8.7 | 0.00 | 0.00 | 0.00 | 83 | 1008.0 |
| 20260507055516 | 60 | 198 | 0.0 | 7.0 | 0.00 | 0.00 | 0.00 | 83 | 1008.2 |
| 20260507055500 | 60 | 212 | 0.9 | 7.0 | 0.00 | 0.00 | 0.00 | 84 | 1008.0 |
| 20260507055435 | 60 | 235 | 2.6 | 7.0 | 0.00 | 0.00 | 0.00 | 84 | 1007.8 |
| 20260507055115 | 60 | 211 | 0.0 | 5.2 | 0.00 | 0.00 | 0.00 | 85 | 1008.0 |
| 20260507055104 | 60 | 215 | 1.7 | 5.2 | 0.00 | 0.00 | 0.00 | 85 | 1008.0 |
| 20260507055055 | 60 | 232 | 2.6 | 5.2 | 0.00 | 0.00 | 0.00 | 85 | 1008.0 |
| 20260507055039 | 60 | 180 | 0.0 | 5.2 | 0.00 | 0.00 | 0.00 | 85 | 1008.0 |
| 20260507055023 | 60 | 215 | 1.7 | 5.2 | 0.00 | 0.00 | 0.00 | 85 | 1008.0 |
| 20260507054714 | 60 | 186 | 0.0 | 5.2 | 0.00 | 0.00 | 0.00 | 86 | 1007.9 |
| 20260507054614 | 60 | 208 | 0.9 | 5.2 | 0.00 | 0.00 | 0.00 | 86 | 1007.9 |
| 20260507054513 | 59 | 191 | 0.0 | 5.2 | 0.00 | 0.00 | 0.00 | 86 | 1007.9 |
| 20260507054414 | 59 | 211 | 0.0 | 5.2 | 0.00 | 0.00 | 0.00 | 86 | 1007.9 |
| 20260507054350 | 59 | 216 | 0.9 | 5.2 | 0.00 | 0.00 | 0.00 | 86 | 1008.0 |
| 20260507054334 | 59 | 207 | 0.9 | 5.2 | 0.00 | 0.00 | 0.00 | 86 | 1007.8 |
| 20260507054055 | 59 | 210 | 0.0 | 5.2 | 0.00 | 0.00 | 0.00 | 86 | 1007.9 |
| 20260507054040 | 59 | 215 | 1.7 | 3.5 | 0.00 | 0.00 | 0.00 | 86 | 1007.7 |
| 20260507053813 | 59 | 203 | 0.0 | 3.5 | 0.00 | 0.00 | 0.00 | 86 | 1007.8 |
| 20260507053713 | 59 | 207 | 1.7 | 3.5 | 0.00 | 0.00 | 0.00 | 86 | 1007.8 |
| 20260507053614 | 59 | 194 | 0.0 | 3.5 | 0.00 | 0.00 | 0.00 | 87 | 1007.9 |
| 20260507053557 | 59 | 192 | 0.0 | 3.5 | 0.00 | 0.00 | 0.00 | 87 | 1007.8 |
| 20260507053541 | 59 | 193 | 0.0 | 3.5 | 0.00 | 0.00 | 0.00 | 86 | 1007.9 |
| 20260507053313 | 59 | 202 | 0.0 | 3.5 | 0.00 | 0.00 | 0.00 | 86 | 1007.9 |
| 20260507053250 | 59 | 207 | 0.0 | 0.9 | 0.00 | 0.00 | 0.00 | 86 | 1007.9 |
| 20260507053234 | 59 | 190 | 0.0 | 0.0 | 0.00 | 0.00 | 0.00 | 86 | 1007.7 |
| 20260507052946 | 59 | 187 | 0.0 | 0.9 | 0.00 | 0.00 | 0.00 | 86 | 1008.1 |
| 20260507052924 | 59 | 190 | 0.0 | 0.9 | 0.00 | 0.00 | 0.00 | 86 | 1008.0 |
| 20260507052909 | 59 | 190 | 0.0 | 0.9 | 0.00 | 0.00 | 0.00 | 86 | 1008.1 |
| 20260507052632 | 59 | 190 | 0.0 | 0.9 | 0.00 | 0.00 | 0.00 | 86 | 1008.0 |
| 20260507052313 | 59 | 190 | 0.0 | 0.9 | 0.00 | 0.00 | 0.00 | 86 | 1007.8 |
| 20260507052213 | 59 | 188 | 0.0 | 0.9 | 0.00 | 0.00 | 0.00 | 86 | 1008.0 |
| 20260507052149 | 59 | 191 | 0.0 | 0.9 | 0.00 | 0.00 | 0.00 | 86 | 1007.8 |
| 20260507052134 | 59 | 189 | 0.0 | 0.9 | 0.00 | 0.00 | 0.00 | 86 | 1007.8 |
| 20260507051813 | 59 | 194 | 0.0 | 0.9 | 0.00 | 0.00 | 0.00 | 86 | 1007.9 |
| 20260507051715 | 59 | 202 | 0.0 | 0.9 | 0.00 | 0.00 | 0.00 | 86 | 1007.6 |
| 20260507051613 | 59 | 204 | 0.0 | 0.9 | 0.00 | 0.00 | 0.00 | 86 | 1007.8 |
| 20260507051512 | 60 | 202 | 0.0 | 0.9 | 0.00 | 0.00 | 0.00 | 86 | 1007.7 |
| 20260507051414 | 60 | 186 | 0.0 | 0.0 | 0.00 | 0.00 | 0.00 | 86 | 1007.6 |
| 20260507051312 | 60 | 194 | 0.0 | 0.0 | 0.00 | 0.00 | 0.00 | 86 | 1007.9 |
| 20260507051213 | 60 | 193 | 0.0 | 0.0 | 0.00 | 0.00 | 0.00 | 86 | 1007.9 |
| 20260507051114 | 60 | 199 | 0.0 | 0.0 | 0.00 | 0.00 | 0.00 | 86 | 1008.0 |
| 20260507051012 | 60 | 198 | 0.0 | 0.0 | 0.00 | 0.00 | 0.00 | 86 | 1007.9 |
| 20260507050913 | 60 | 196 | 0.0 | 0.0 | 0.00 | 0.00 | 0.00 | 86 | 1007.8 |
| 20260507050813 | 60 | 199 | 0.0 | 0.0 | 0.00 | 0.00 | 0.00 | 86 | 1007.8 |
| 20260507050714 | 60 | 193 | 0.0 | 0.0 | 0.00 | 0.00 | 0.00 | 86 | 1007.8 |
| 20260507050648 | 60 | 193 | 0.0 | 0.0 | 0.00 | 0.00 | 0.00 | 85 | 1007.5 |
| 20260507050632 | 60 | 192 | 0.0 | 0.0 | 0.00 | 0.00 | 0.00 | 86 | 1007.7 |
| 20260507050617 | 60 | 192 | 0.0 | 0.0 | 0.00 | 0.00 | 0.00 | 86 | 1007.7 |
| 20260507050552 | 60 | 192 | 0.0 | 0.0 | 0.00 | 0.00 | 0.00 | 86 | 1007.6 |
| 20260507050013 | 60 | 191 | 0.0 | 0.0 | 0.00 | 0.00 | 0.00 | 85 | 1007.5 |
| 20260507045913 | 60 | 191 | 0.0 | 0.9 | 0.00 | 0.00 | 0.00 | 85 | 1007.5 |
| 20260507045849 | 60 | 191 | 0.0 | 1.7 | 0.00 | 0.00 | 0.00 | 85 | 1007.7 |
| 20260507045834 | 60 | 191 | 0.0 | 1.7 | 0.00 | 0.00 | 0.00 | 85 | 1007.6 |
| 20260507045513 | 60 | 193 | 0.0 | 1.7 | 0.00 | 0.00 | 0.00 | 85 | 1007.5 |
| 20260507045415 | 60 | 196 | 0.0 | 1.7 | 0.00 | 0.00 | 0.00 | 85 | 1007.4 |
| 20260507045313 | 60 | 198 | 0.0 | 1.7 | 0.00 | 0.00 | 0.00 | 85 | 1007.7 |
| 20260507045213 | 60 | 198 | 0.0 | 1.7 | 0.00 | 0.00 | 0.00 | 85 | 1007.6 |
| 20260507045113 | 59 | 198 | 0.0 | 1.7 | 0.00 | 0.00 | 0.00 | 85 | 1007.5 |
| 20260507045014 | 59 | 202 | 0.0 | 1.7 | 0.00 | 0.00 | 0.00 | 85 | 1007.3 |
| 20260507044915 | 59 | 205 | 1.7 | 1.7 | 0.00 | 0.00 | 0.00 | 85 | 1007.5 |
| 20260507044813 | 59 | 206 | 0.0 | 1.7 | 0.00 | 0.00 | 0.00 | 85 | 1007.3 |
| 20260507044714 | 59 | 192 | 0.0 | 3.5 | 0.00 | 0.00 | 0.00 | 85 | 1007.5 |
| 20260507044650 | 59 | 188 | 0.0 | 3.5 | 0.00 | 0.00 | 0.00 | 85 | 1007.4 |
| 20260507044633 | 59 | 188 | 0.0 | 3.5 | 0.00 | 0.00 | 0.00 | 85 | 1007.5 |
| 20260507044617 | 59 | 187 | 0.0 | 3.5 | 0.00 | 0.00 | 0.00 | 86 | 1007.4 |
| 20260507044553 | 59 | 190 | 0.0 | 3.5 | 0.00 | 0.00 | 0.00 | 86 | 1007.6 |
| 20260507044316 | 59 | 196 | 0.0 | 3.5 | 0.00 | 0.00 | 0.00 | 86 | 1007.1 |
| 20260507044039 | 59 | 201 | 0.0 | 3.5 | 0.00 | 0.00 | 0.00 | 85 | 1007.3 |
| 20260507043813 | 59 | 221 | 2.6 | 3.5 | 0.00 | 0.00 | 0.00 | 85 | 1007.4 |
| 20260507043714 | 59 | 201 | 0.9 | 1.7 | 0.00 | 0.00 | 0.00 | 85 | 1007.3 |
| 20260507043613 | 59 | 206 | 0.0 | 1.7 | 0.00 | 0.00 | 0.00 | 85 | 1007.4 |
| 20260507043514 | 59 | 198 | 0.0 | 0.9 | 0.00 | 0.00 | 0.00 | 85 | 1007.4 |
| 20260507043413 | 59 | 203 | 0.0 | 0.9 | 0.00 | 0.00 | 0.00 | 85 | 1007.4 |
| 20260507043307 | 59 | 201 | 0.0 | 0.9 | 0.00 | 0.00 | 0.00 | 85 | 1007.4 |
| 20260507042920 | 59 | 200 | 0.0 | 0.9 | 0.00 | 0.00 | 0.00 | 85 | 1007.2 |
| 20260507042901 | 60 | 198 | 0.0 | 0.9 | 0.00 | 0.00 | 0.00 | 85 | 1007.1 |
| 20260507042846 | 60 | 199 | 0.0 | 0.9 | 0.00 | 0.00 | 0.00 | 84 | 1007.4 |
| 20260507042831 | 60 | 201 | 0.0 | 0.9 | 0.00 | 0.00 | 0.00 | 84 | 1007.4 |
| 20260507042519 | 60 | 196 | 0.0 | 0.9 | 0.00 | 0.00 | 0.00 | 84 | 1007.5 |
| 20260507042419 | 60 | 169 | 0.0 | 0.9 | 0.00 | 0.00 | 0.00 | 84 | 1007.3 |
| 20260507042351 | 60 | 192 | 0.0 | 0.9 | 0.00 | 0.00 | 0.00 | 84 | 1007.2 |
| 20260507042335 | 60 | 196 | 0.0 | 0.9 | 0.00 | 0.00 | 0.00 | 84 | 1007.2 |
| 20260507042322 | 60 | 221 | 0.0 | 0.9 | 0.00 | 0.00 | 0.00 | 84 | 1007.2 |
| 20260507042007 | 60 | 196 | 0.0 | 0.9 | 0.00 | 0.00 | 0.00 | 83 | 1007.0 |
| 20260507041908 | 60 | 194 | 0.0 | 0.9 | 0.00 | 0.00 | 0.00 | 83 | 1007.0 |
| 20260507041808 | 60 | 194 | 0.0 | 0.9 | 0.00 | 0.00 | 0.00 | 83 | 1007.2 |
| 20260507041707 | 60 | 196 | 0.0 | 0.9 | 0.00 | 0.00 | 0.00 | 83 | 1007.0 |
| 20260507041639 | 60 | 196 | 0.0 | 0.9 | 0.00 | 0.00 | 0.00 | 83 | 1007.0 |
| 20260507041609 | 60 | 223 | 0.0 | 0.9 | 0.00 | 0.00 | 0.00 | 83 | 1007.3 |
| 20260507041507 | 60 | 196 | 0.0 | 0.0 | 0.00 | 0.00 | 0.00 | 83 | 1007.2 |
| 20260507041434 | 60 | 198 | 0.0 | 0.0 | 0.00 | 0.00 | 0.00 | 83 | 1007.1 |
| 20260507041427 | 60 | 196 | 0.0 | 0.0 | 0.00 | 0.00 | 0.00 | 83 | 1007.1 |
| 20260507041412 | 60 | 196 | 0.0 | 0.0 | 0.00 | 0.00 | 0.00 | 83 | 1007.2 |
| 20260507041357 | 60 | 196 | 0.0 | 0.0 | 0.00 | 0.00 | 0.00 | 83 | 1007.1 |
| 20260507041108 | 60 | 197 | 0.0 | 0.0 | 0.00 | 0.00 | 0.00 | 83 | 1007.2 |
| 20260507041007 | 60 | 190 | 0.0 | 0.0 | 0.00 | 0.00 | 0.00 | 82 | 1007.0 |
| 20260507040943 | 60 | 192 | 0.0 | 0.0 | 0.00 | 0.00 | 0.00 | 82 | 1006.9 |
| 20260507040928 | 60 | 198 | 0.0 | 0.0 | 0.00 | 0.00 | 0.00 | 82 | 1006.9 |
| 20260507040639 | 60 | 194 | 0.0 | 0.0 | 0.00 | 0.00 | 0.00 | 82 | 1006.9 |
| 20260507040607 | 60 | 194 | 0.0 | 0.0 | 0.00 | 0.00 | 0.00 | 82 | 1007.0 |
| 20260507040531 | 60 | 194 | 0.0 | 0.0 | 0.00 | 0.00 | 0.00 | 82 | 1007.1 |
| 20260507040516 | 60 | 194 | 0.0 | 0.0 | 0.00 | 0.00 | 0.00 | 82 | 1006.8 |
| 20260507040140 | 60 | 196 | 0.0 | 0.0 | 0.00 | 0.00 | 0.00 | 82 | 1007.2 |
| 20260507040056 | 60 | 191 | 0.0 | 0.0 | 0.00 | 0.00 | 0.00 | 82 | 1006.9 |
| 20260507035957 | 60 | 191 | 0.0 | 0.0 | 0.00 | 0.00 | 0.00 | 82 | 1006.9 |
| 20260507035856 | 60 | 191 | 0.0 | 0.0 | 0.00 | 0.00 | 0.00 | 82 | 1007.0 |
| 20260507035755 | 60 | 191 | 0.0 | 0.0 | 0.00 | 0.00 | 0.00 | 82 | 1007.0 |
| 20260507035726 | 60 | 191 | 0.0 | 0.0 | 0.00 | 0.00 | 0.00 | 82 | 1006.9 |
| 20260507035715 | 60 | 192 | 0.0 | 0.0 | 0.00 | 0.00 | 0.00 | 82 | 1007.0 |
| 20260507035356 | 60 | 191 | 0.0 | 0.0 | 0.00 | 0.00 | 0.00 | 82 | 1006.9 |
| 20260507035255 | 60 | 191 | 0.0 | 0.0 | 0.00 | 0.00 | 0.00 | 82 | 1006.7 |
| 20260507035156 | 60 | 191 | 0.0 | 0.0 | 0.00 | 0.00 | 0.00 | 82 | 1006.7 |
| 20260507035139 | 60 | 192 | 0.0 | 0.0 | 0.00 | 0.00 | 0.00 | 81 | 1006.7 |
| 20260507035055 | 60 | 191 | 0.0 | 0.0 | 0.00 | 0.00 | 0.00 | 81 | 1006.8 |
| 20260507034957 | 60 | 189 | 0.0 | 0.0 | 0.00 | 0.00 | 0.00 | 81 | 1006.7 |
| 20260507034936 | 60 | 190 | 0.0 | 0.9 | 0.00 | 0.00 | 0.00 | 81 | 1006.8 |
| 20260507034928 | 60 | 190 | 0.0 | 0.9 | 0.00 | 0.00 | 0.00 | 81 | 1006.8 |
| 20260507034912 | 60 | 190 | 0.0 | 0.9 | 0.00 | 0.00 | 0.00 | 81 | 1006.9 |
| 20260507034856 | 60 | 190 | 0.0 | 0.9 | 0.00 | 0.00 | 0.00 | 81 | 1006.8 |
| 20260507034555 | 60 | 190 | 0.0 | 1.7 | 0.00 | 0.00 | 0.00 | 81 | 1006.7 |
| 20260507034455 | 60 | 190 | 0.0 | 1.7 | 0.00 | 0.00 | 0.00 | 81 | 1006.7 |
| 20260507034431 | 60 | 190 | 0.0 | 2.6 | 0.00 | 0.00 | 0.00 | 81 | 1006.9 |
| 20260507034415 | 60 | 191 | 0.0 | 2.6 | 0.00 | 0.00 | 0.00 | 81 | 1006.8 |